GFSGBSN_850_spd_081.txt.gz
Wind_Speed
13 13 14 13 14 16 17 17 17 19 18 18 20 21 21 21 21 20 21 22 21 20 20 20 21 21 21 9 29 18 18 16 12 10 9 13 17 18 12 10 19 15 17 26 30 31 31
15 16 16 17 18 17 18 19 20 20 21 22 23 24 24 24 22 22 23 24 23 21 21 21 21 21 16 12 10 4 5 10 10 9 7 11 17 20 19 16 14 18 19 22 25 22 28
13 13 16 16 18 19 19 23 23 22 24 25 25 27 23 24 23 24 25 25 24 21 22 21 21 17 20 38 15 14 12 9 9 12 13 16 15 21 17 12 28 22 14 13 8 16 9
16 17 18 18 18 18 19 20 22 23 23 24 24 23 23 20 24 25 26 24 23 20 20 18 16 9 16 15 12 15 17 17 14 14 15 14 14 15 10 14 14 6 6 8 11 11 16
18 20 18 18 19 20 21 21 20 24 22 24 23 24 23 23 26 26 24 23 21 17 15 12 11 10 15 8 12 3 2 9 12 15 17 16 13 13 12 4 5 3 6 15 11 9 13
16 19 20 19 20 21 22 23 23 22 23 23 23 25 25 24 26 23 21 21 13 14 10 6 7 7 17 9 2 5 3 7 9 11 13 17 8 4 2 2 8 6 9 10 14 19 17
19 18 21 22 21 21 22 21 21 22 23 23 23 26 27 26 24 17 16 18 11 4 7 12 14 12 6 6 11 11 11 12 5 9 6 9 4 6 7 9 12 13 16 17 15 17 17
17 17 20 21 21 21 23 25 22 20 22 24 25 25 27 24 19 8 11 10 9 12 16 28 39 42 39 30 17 21 15 8 9 7 7 5 11 9 8 12 13 10 17 20 18 23 17
16 18 20 22 23 24 26 25 20 21 21 24 22 22 25 22 15 4 11 11 13 12 6 21 24 18 20 21 15 22 21 17 6 9 8 9 3 8 3 9 12 14 17 18 20 27 20
18 21 22 25 24 21 21 22 22 22 24 24 24 22 22 22 11 9 5 10 9 13 4 7 7 7 12 8 8 20 17 20 7 8 6 8 8 6 4 8 6 16 13 16 20 19 8
19 23 24 24 23 25 25 26 26 23 24 25 23 19 19 17 18 14 11 10 8 7 4 10 8 14 10 9 1 7 8 17 8 8 6 5 5 2 5 10 9 11 7 12 12 15 13
20 23 22 21 21 21 22 24 23 24 22 21 21 21 17 17 12 8 13 13 11 3 7 6 7 7 8 12 7 11 7 5 8 5 8 5 5 6 3 1 2 6 9 8 10 8 6
21 20 20 19 20 22 24 23 24 22 21 23 20 21 20 16 19 3 7 11 3 5 10 8 5 12 13 7 15 10 8 5 4 4 5 4 6 5 5 3 2 3 9 3 5 5 7
19 20 20 21 22 23 24 24 24 24 22 24 22 22 19 18 17 12 13 3 8 9 9 4 4 3 5 9 10 10 9 6 8 3 2 5 5 11 9 9 7 5 3 3 4 3 2
19 21 21 21 23 23 22 21 21 20 21 21 21 15 21 17 14 12 10 5 4 4 9 10 3 1 6 12 3 2 10 7 4 9 5 2 6 2 10 7 11 3 7 6 6 3 2
22 22 22 22 22 23 23 22 20 19 18 18 17 16 26 12 9 14 6 9 9 9 15 14 5 6 8 9 4 0 0 5 3 5 3 2 5 6 7 7 12 11 1 2 3 3 3
22 23 24 23 21 21 21 20 19 18 17 15 10 7 17 3 14 12 7 7 11 21 20 9 7 9 11 11 7 3 4 3 7 6 3 5 7 5 7 6 11 6 9 4 4 4 2
23 23 24 23 22 21 19 18 17 16 13 13 9 3 8 11 8 4 6 4 8 17 23 10 8 6 9 12 6 6 3 5 8 3 4 4 4 4 9 10 11 13 13 13 2 2 4
24 25 25 24 21 20 18 17 16 15 12 13 6 11 13 7 5 5 3 12 17 18 16 7 7 8 7 9 5 5 7 11 8 4 3 3 3 4 5 3 5 5 12 16 7 7 3
26 25 23 22 22 21 20 17 15 13 12 11 6 3 4 12 7 3 8 11 14 15 14 20 13 15 11 8 8 5 8 1 9 5 9 4 2 2 6 4 1 4 9 12 12 3 4
25 23 25 24 23 21 23 20 16 14 11 12 4 4 3 3 3 5 7 6 6 12 17 17 7 12 12 8 7 6 8 7 2 6 6 6 5 4 9 12 8 7 8 6 11 12 6
25 25 25 24 23 24 24 23 20 17 14 16 4 4 4 9 12 8 9 4 13 14 11 10 8 8 9 7 7 8 5 6 3 6 7 6 5 5 8 10 13 7 9 8 3 2 8
23 25 24 22 24 23 22 23 21 22 20 16 17 16 6 7 6 3 5 7 9 10 12 11 11 10 12 6 12 12 2 3 1 1 4 4 4 3 4 8 6 5 9 10 12 16 14
26 24 22 24 24 21 21 22 24 27 29 29 19 13 4 5 4 7 14 12 11 12 9 11 3 4 5 12 20 10 9 9 9 7 8 4 6 3 3 7 5 6 6 10 12 8 9
22 22 25 24 21 20 21 20 18 20 31 33 31 16 6 3 9 12 15 11 10 12 7 9 10 12 6 5 1 5 4 4 6 13 11 8 4 2 2 3 9 14 2 3 1 3 7
22 25 26 23 21 19 18 18 16 16 32 33 34 30 15 3 5 17 14 13 5 5 6 13 6 4 3 1 3 3 4 5 4 4 18 14 6 5 2 4 5 10 5 11 2 3 11
26 27 26 23 22 20 20 20 20 19 21 36 33 34 26 9 19 19 4 7 10 13 4 4 2 4 3 2 1 3 3 4 3 4 2 10 6 12 7 4 7 4 4 8 4 2 14
27 28 27 26 24 23 22 22 21 22 21 33 41 27 34 12 20 15 16 17 11 10 2 9 4 1 1 1 2 4 2 4 3 2 8 7 7 5 4 4 7 10 3 3 4 17 21
30 29 28 27 25 26 26 24 20 23 23 23 32 37 26 25 10 5 18 27 27 24 17 3 5 4 2 2 1 3 3 3 3 3 8 3 4 4 7 6 4 20 19 19 19 21 22

GFSGBSN_850_spd_084.txt.gz
Wind_Speed
12 13 13 13 14 15 17 18 20 21 22 23 25 27 29 27 27 25 25 24 23 20 21 21 22 23 24 10 31 12 12 20 8 8 12 15 17 17 7 6 12 6 12 25 27 32 29
9 11 12 14 14 16 18 18 20 23 24 26 26 27 26 28 25 25 26 26 25 22 22 21 20 22 17 12 13 2 12 8 10 11 8 12 10 17 5 8 8 9 17 24 26 27 28
12 13 14 16 15 15 17 17 19 21 23 24 25 28 28 27 27 26 28 27 25 22 21 20 20 17 17 35 9 13 13 18 12 15 13 13 15 15 6 4 9 20 12 13 11 13 5
13 16 17 17 17 18 19 20 21 22 20 24 25 27 27 28 29 28 30 27 24 22 21 18 17 12 17 21 17 19 14 25 18 16 16 15 10 9 14 7 7 4 3 5 5 2 6
12 13 17 19 18 19 20 20 20 21 23 24 24 26 27 30 31 30 28 25 23 22 21 15 12 11 17 11 13 3 5 9 19 20 17 15 11 7 4 4 2 2 7 8 7 3 3
15 15 15 19 20 19 18 20 22 22 21 22 24 26 29 32 31 28 24 22 10 8 4 8 8 6 18 2 1 4 3 4 4 6 9 11 6 3 2 4 10 7 5 5 3 4 6
13 14 12 15 18 19 19 20 22 26 20 21 23 25 27 30 30 22 18 16 13 2 13 12 9 16 17 6 8 9 3 6 10 4 5 3 3 6 10 7 5 4 8 9 5 7 12
13 13 15 16 18 20 21 23 24 19 19 21 22 24 26 30 29 17 11 11 16 21 16 24 32 39 43 29 14 14 10 4 6 5 2 3 7 6 6 6 7 8 7 7 7 2 7
13 16 18 19 20 22 19 19 20 21 22 20 23 25 27 29 28 12 10 9 17 10 6 22 22 21 32 25 18 26 17 8 3 4 5 5 7 10 8 8 10 8 7 5 8 7 4
13 16 19 21 22 21 21 22 22 23 23 23 23 23 23 24 19 11 11 15 9 10 5 9 8 9 11 13 6 25 14 12 5 7 4 6 14 8 6 6 5 4 3 3 6 5 3
16 17 20 22 21 20 21 21 21 22 22 21 20 19 20 18 25 20 14 13 9 2 4 4 7 8 15 13 5 6 12 17 7 4 6 6 4 5 4 5 3 2 5 3 1 3 7
15 16 19 18 18 18 20 22 23 23 23 21 20 21 20 20 22 20 15 17 5 2 8 5 6 8 9 9 2 10 4 6 8 4 5 6 4 3 7 3 4 6 4 4 4 2 8
17 20 16 18 18 19 21 23 24 24 22 22 22 22 19 19 24 17 15 13 3 6 9 4 6 8 11 7 6 6 6 6 5 5 6 2 5 3 4 6 3 5 5 3 5 6 11
16 16 16 18 19 19 21 22 23 21 21 20 20 21 22 24 21 13 12 3 8 7 8 16 8 10 8 7 8 12 8 5 4 3 3 6 3 9 5 7 6 5 8 3 5 5 2
17 18 17 18 19 21 22 22 23 21 21 19 20 22 23 16 14 11 6 6 4 3 5 12 14 2 1 4 4 9 12 3 5 9 6 4 4 1 5 5 10 6 5 5 5 3 1
19 15 16 18 21 21 20 20 21 19 17 18 19 20 24 12 13 10 5 6 7 8 13 10 5 9 7 9 9 3 4 4 3 2 1 1 2 3 4 6 1 4 6 2 4 2 3
15 16 16 18 20 21 20 19 18 16 16 15 14 9 14 6 16 9 3 6 8 12 17 10 7 6 7 7 7 9 4 4 5 5 6 3 3 6 2 4 9 5 2 5 3 4 2
19 15 18 20 20 20 19 18 16 15 14 13 8 3 5 7 5 4 1 2 9 12 9 5 6 3 4 7 5 5 6 3 7 2 2 1 1 3 8 7 8 11 6 6 3 2 3
18 17 19 20 21 17 17 17 15 13 10 10 5 12 15 5 2 4 4 11 10 11 12 5 6 8 9 4 5 4 4 3 9 3 4 1 1 3 6 4 7 5 4 4 9 3 6
16 18 19 20 19 19 18 16 12 12 10 7 4 3 3 5 5 4 4 7 6 9 10 10 7 7 4 6 4 5 5 3 4 1 4 3 3 4 3 2 3 5 6 10 8 3 2
18 20 18 20 20 20 18 17 16 12 9 7 4 4 5 2 2 4 7 3 3 3 6 7 3 1 6 3 7 4 4 4 6 9 3 3 2 3 5 7 8 11 12 8 8 10 5
18 18 20 18 18 19 17 19 17 14 11 13 5 3 5 8 10 4 3 2 4 6 7 7 5 9 5 3 2 4 7 3 2 4 3 4 2 5 5 6 10 10 16 9 10 5 4
14 17 20 21 21 17 19 18 17 17 16 16 14 16 3 4 4 4 3 10 13 11 7 8 8 2 5 2 4 12 11 13 5 1 1 2 3 5 4 4 7 5 12 13 10 8 10
17 20 21 16 15 19 19 17 15 16 21 26 15 8 4 3 2 4 11 16 13 10 4 11 10 3 4 10 13 7 6 10 9 7 6 4 4 3 4 5 4 5 18 12 14 8 16
19 23 18 16 18 20 19 16 16 16 16 28 29 14 5 2 5 5 8 8 11 17 6 6 16 5 2 4 3 4 4 3 6 9 9 8 4 2 3 3 7 18 6 5 3 1 12
22 23 17 18 20 20 18 15 14 12 12 28 31 26 13 1 5 9 3 5 2 4 6 4 3 2 1 2 2 2 3 3 3 4 11 8 5 4 2 3 3 7 9 10 9 2 12
23 21 19 20 21 20 19 16 15 14 14 15 30 30 24 11 18 17 2 2 3 4 3 4 11 7 1 2 2 2 3 2 3 3 1 2 1 11 4 4 6 9 13 18 4 3 8
25 21 21 21 23 22 22 19 16 16 16 18 28 33 30 13 19 8 5 5 2 1 2 8 6 3 2 1 2 3 2 3 2 4 3 4 5 4 4 4 9 15 13 4 6 16 18
22 21 22 23 24 25 23 22 20 19 20 22 26 31 30 23 7 9 18 23 26 22 13 3 2 1 4 2 1 1 2 3 2 3 2 4 5 3 5 5 7 16 17 16 17 19 18

GFSGBSN_850_spd_087.txt.gz
Wind_Speed
8 9 9 11 13 13 15 17 18 19 21 22 23 26 27 29 29 28 29 28 27 23 24 24 25 26 28 10 25 18 13 14 10 8 13 17 19 18 6 5 11 5 5 17 20 21 22
9 10 12 13 13 14 15 17 19 19 19 22 25 26 27 30 30 31 30 29 27 27 24 23 21 22 15 9 19 11 20 29 12 11 13 16 11 21 9 9 7 5 20 18 21 21 22
9 11 14 15 14 15 17 18 19 21 22 23 23 26 28 30 31 33 34 31 28 26 24 23 19 20 19 40 14 12 9 13 14 12 17 13 17 10 6 4 20 14 9 8 6 7 8
8 9 11 16 17 17 19 18 19 21 22 23 24 24 28 31 34 35 35 31 27 25 25 27 22 15 17 29 22 25 27 31 21 17 17 17 12 14 17 15 6 4 2 2 3 7 8
10 11 11 12 17 18 18 17 18 22 23 25 23 24 27 31 33 36 34 29 24 21 21 20 16 12 15 15 16 11 12 20 21 22 16 11 12 11 5 4 2 2 4 3 3 5 5
12 10 10 9 12 15 17 18 20 23 25 22 21 24 27 29 31 34 33 23 12 9 9 2 3 6 17 7 4 4 8 10 4 17 16 11 8 4 2 3 8 7 4 2 4 3 5
8 8 9 11 12 14 16 18 20 20 20 20 23 25 27 28 33 31 30 20 12 6 16 12 11 17 17 7 11 6 5 5 10 7 6 4 4 7 11 7 4 3 3 3 4 5 4
10 10 12 13 14 15 16 15 18 22 23 24 24 25 27 29 29 29 16 14 8 18 21 25 34 39 44 38 16 17 4 4 6 5 4 1 7 8 7 6 6 7 6 4 5 2 4
8 8 11 13 15 16 16 17 19 20 21 22 24 23 25 27 27 20 16 7 18 23 8 24 31 23 29 26 24 35 12 4 3 6 6 6 5 5 8 6 5 4 4 3 6 4 4
12 12 14 15 15 16 15 18 20 21 22 23 23 22 21 25 20 20 15 17 15 14 5 9 7 9 14 14 11 31 22 9 5 9 6 5 7 5 5 5 6 4 2 2 2 2 4
10 9 11 14 14 14 14 16 20 22 24 23 23 22 20 20 25 25 27 17 14 2 5 3 5 3 14 17 8 8 22 16 7 6 6 6 2 5 4 4 6 3 3 4 3 1 2
11 13 14 12 12 14 15 17 19 22 23 21 21 21 21 20 22 22 17 15 12 3 9 6 6 5 6 7 0 9 10 9 8 3 3 5 1 1 3 5 2 6 4 3 2 3 7
12 12 13 11 13 15 16 18 19 21 22 21 21 21 19 19 24 21 19 14 3 6 8 3 4 5 7 4 3 5 6 7 6 5 4 2 2 2 4 5 5 6 5 3 3 4 6
11 12 12 13 13 14 16 19 19 20 22 22 22 23 22 23 21 18 12 3 7 7 11 15 7 12 6 6 6 6 6 4 2 3 3 5 2 8 4 5 5 3 6 4 4 2 3
13 13 13 10 13 15 17 18 18 19 20 20 22 24 26 24 16 6 4 6 3 3 13 12 19 2 1 3 3 7 5 4 5 6 4 4 2 2 3 5 9 4 4 1 1 6 5
12 12 9 12 13 15 17 17 17 18 18 18 21 24 24 10 5 11 2 6 5 6 16 13 5 7 7 7 5 0 3 4 3 5 1 1 2 1 3 5 4 6 6 2 3 3 4
10 11 12 10 14 16 16 16 15 15 16 17 17 10 10 12 13 11 4 5 7 11 16 9 8 9 7 6 4 3 6 3 5 4 7 2 3 2 3 4 8 3 3 2 2 3 3
13 13 10 12 14 16 16 13 12 14 14 14 7 3 8 15 5 3 3 3 8 8 12 8 5 7 6 6 7 6 5 3 8 4 4 3 3 1 6 3 4 5 4 5 3 2 3
11 15 14 13 14 15 13 11 10 12 12 11 5 8 5 7 2 3 4 10 8 8 11 6 7 6 7 4 3 8 8 6 8 3 3 1 2 2 4 2 6 5 2 2 7 2 7
14 17 14 15 16 17 13 12 10 10 11 7 4 3 3 3 6 4 5 10 6 7 10 12 10 9 5 4 5 4 7 8 9 4 11 4 2 2 2 5 3 3 5 4 5 3 2
17 15 15 15 14 15 15 12 11 9 10 5 2 3 2 3 2 6 8 3 3 3 4 5 3 5 4 4 3 4 7 6 6 10 5 4 1 1 4 6 6 9 11 11 8 9 6
18 16 15 15 12 13 12 12 12 10 12 12 4 2 4 7 12 7 10 10 11 5 3 5 7 4 4 3 2 3 3 4 4 6 4 3 2 4 3 7 8 9 11 12 8 9 9
16 17 12 13 18 18 14 11 12 11 14 13 11 10 5 4 5 3 3 11 10 12 7 7 9 3 5 2 4 7 7 6 4 2 3 2 2 3 3 7 9 5 4 7 4 5 3
15 12 13 17 20 11 11 13 13 10 16 19 15 10 5 4 2 4 10 11 11 11 5 10 10 3 3 6 9 7 7 9 7 7 8 3 4 3 3 4 3 6 12 11 5 7 5
13 12 15 20 17 13 14 14 13 12 13 20 21 12 6 3 6 7 8 4 10 11 4 4 8 5 7 6 3 3 3 3 4 6 7 6 4 1 2 3 6 10 4 5 8 11 4
14 17 20 19 16 15 15 14 14 12 11 14 16 20 10 2 5 13 4 5 1 3 6 6 12 9 6 3 3 2 1 1 3 5 4 5 3 3 1 3 5 5 4 15 9 6 9
16 21 20 19 17 17 16 15 14 12 11 15 18 22 20 5 12 11 2 1 2 3 2 4 11 8 9 2 0 2 2 2 2 1 1 2 1 7 5 5 6 4 9 13 1 4 12
20 23 26 22 18 17 17 16 16 15 14 14 21 17 25 11 15 4 4 14 7 4 1 5 3 4 2 2 0 2 2 2 2 3 2 4 4 3 2 5 8 11 7 3 3 18 16
23 26 25 19 17 18 19 18 18 18 16 16 22 21 16 17 7 4 20 22 17 11 8 1 3 2 4 3 1 2 2 3 2 2 4 2 3 2 4 3 9 16 17 17 18 17 16

GFSGBSN_850_spd_090.txt.gz
Wind_Speed
3 6 7 9 10 11 13 15 17 18 20 21 23 24 26 27 29 31 32 33 31 30 28 27 27 26 26 10 25 25 19 22 17 8 11 18 14 12 6 5 10 4 4 10 25 21 21
4 6 8 9 10 12 13 15 16 18 19 21 23 23 26 28 31 33 34 34 32 30 28 26 24 22 16 16 23 14 13 19 17 10 13 17 10 17 8 6 6 3 17 21 24 22 13
5 5 8 10 12 13 15 15 16 17 20 23 26 24 26 27 31 35 37 37 32 29 28 27 27 24 21 44 28 24 21 20 17 13 13 16 21 12 7 4 9 19 11 8 7 10 7
4 6 6 7 11 14 14 15 16 19 23 24 24 23 24 28 32 36 39 37 31 28 27 25 24 18 19 26 28 30 26 28 16 16 17 19 11 13 9 12 7 2 5 4 4 8 9
9 9 8 8 8 11 14 16 18 21 22 23 23 24 26 28 33 35 38 35 26 20 19 17 14 11 16 13 14 8 9 22 25 19 20 14 13 10 5 3 3 2 3 4 4 8 4
7 5 6 7 8 11 14 17 19 19 20 22 23 24 25 28 31 33 36 28 20 13 12 10 2 6 13 9 11 13 11 9 8 13 18 12 9 5 3 4 7 5 4 4 4 3 2
6 6 8 10 11 13 15 15 15 18 21 21 23 25 26 26 29 30 32 26 14 6 25 17 24 29 37 21 18 6 3 6 10 10 7 9 4 8 8 10 5 2 3 4 3 6 4
7 6 9 9 11 12 13 13 16 17 19 21 23 25 25 26 27 28 19 20 8 19 20 29 38 41 43 40 24 33 12 5 8 6 6 3 12 8 8 6 5 5 5 5 5 5 3
5 7 10 13 13 13 13 13 15 17 20 22 24 24 24 26 26 15 25 9 20 26 8 28 29 23 22 25 24 36 18 4 4 7 7 7 3 9 12 6 7 5 5 4 5 4 4
7 8 8 8 9 11 11 11 15 18 20 22 24 23 23 25 16 23 16 22 18 22 5 10 6 9 10 10 10 38 20 10 3 9 6 4 5 4 5 6 7 6 7 6 3 2 4
6 6 8 10 9 10 12 13 15 18 20 21 23 21 22 18 25 21 24 20 17 11 5 4 3 3 11 12 3 13 31 20 7 6 6 6 3 5 4 6 8 5 5 6 3 3 2
6 8 10 10 9 11 12 14 16 19 20 22 22 21 22 20 21 18 23 20 12 4 7 7 1 2 4 10 4 10 13 9 10 4 1 7 1 4 4 4 4 9 5 4 3 2 2
6 7 8 8 10 11 12 14 17 19 19 20 21 21 20 22 24 22 19 16 2 5 8 7 10 8 13 4 3 7 12 7 6 6 5 2 2 2 5 7 4 3 5 3 5 2 4
8 9 10 10 10 10 12 15 16 17 19 20 22 21 21 22 16 12 8 3 7 6 8 13 10 22 7 4 3 4 10 4 2 4 4 6 2 8 4 4 6 2 4 4 4 3 3
9 9 9 7 9 11 12 14 15 17 18 19 22 22 23 11 10 2 3 2 3 2 7 11 17 12 2 4 2 4 4 5 7 6 4 5 1 2 3 4 5 2 3 2 3 3 1
10 8 8 7 8 11 12 13 14 16 17 18 22 23 9 13 8 8 2 6 5 9 14 8 5 6 7 8 4 3 4 4 1 6 2 4 5 4 2 6 9 3 7 4 2 3 4
10 8 10 10 8 11 13 13 11 12 16 17 16 10 8 13 4 5 3 5 8 17 12 7 8 5 9 7 5 2 6 3 6 3 3 2 3 1 4 2 6 2 3 5 3 2 3
12 9 6 8 8 12 12 8 8 11 13 14 8 4 10 12 3 2 2 3 6 10 13 2 6 4 4 9 10 6 6 6 11 2 4 3 3 3 4 4 4 4 4 4 3 3 4
12 8 11 12 10 12 11 9 8 8 12 11 6 6 6 10 3 3 6 6 9 8 7 1 4 3 7 6 6 8 6 13 12 5 1 2 3 3 3 3 7 6 2 4 3 1 4
12 9 13 11 12 12 11 9 8 6 10 8 4 3 4 3 2 4 4 6 5 10 11 5 4 6 2 6 6 6 5 4 7 4 14 6 4 5 3 3 1 2 3 2 4 3 4
13 12 13 12 12 11 12 10 7 5 8 5 1 2 2 4 4 6 10 7 12 1 1 8 5 5 5 4 6 5 5 4 11 14 7 4 4 4 4 2 2 2 5 8 8 10 8
14 14 13 13 13 9 8 9 6 5 7 7 4 2 2 7 10 6 9 8 13 12 4 3 8 7 3 3 1 1 4 6 3 6 5 5 2 2 1 3 4 3 10 6 9 11 11
15 14 14 13 9 12 14 13 8 6 10 5 8 9 2 5 4 3 0 8 15 13 8 5 6 3 4 4 5 6 6 6 3 2 3 2 3 2 2 1 4 4 3 5 7 5 4
16 16 12 10 11 16 12 9 10 9 11 12 10 8 5 3 1 3 8 12 11 14 6 11 12 5 8 15 14 8 7 7 6 5 4 3 3 2 1 3 2 4 7 3 5 5 8
18 16 14 9 12 17 14 12 12 11 11 13 15 12 6 2 4 6 8 5 14 14 5 5 9 12 14 8 4 2 2 1 1 2 4 3 3 2 1 1 5 11 2 3 3 11 6
16 17 12 13 17 16 17 14 13 12 11 12 12 10 6 1 4 8 3 4 3 4 6 5 14 12 11 3 3 3 3 2 4 3 7 6 4 2 0 1 2 5 2 8 3 8 11
18 20 15 16 17 15 17 16 14 13 12 12 13 11 12 3 11 6 2 2 2 3 3 5 11 11 13 4 3 2 3 2 2 2 1 3 2 3 3 4 5 5 12 11 3 4 11
20 19 15 16 19 18 18 16 15 15 12 12 13 19 15 7 19 9 12 15 11 5 1 7 4 6 4 5 2 2 1 3 3 2 2 3 3 3 2 3 7 14 4 3 3 11 13
21 17 19 20 20 18 17 16 16 16 15 15 16 16 16 14 8 8 11 24 12 6 1 4 2 1 3 2 3 3 2 3 3 2 4 3 1 1 4 3 7 11 13 14 12 15 16

GFSGBSN_850_spd_093.txt.gz
Wind_Speed
3 4 4 5 6 8 10 11 13 14 16 18 20 22 23 25 26 27 29 30 30 29 30 28 26 25 23 11 27 29 28 24 28 16 11 18 18 16 12 7 9 9 8 10 20 19 18
3 4 5 5 6 8 9 10 13 15 18 21 23 24 25 28 30 32 33 33 31 30 29 28 26 25 16 17 21 8 8 13 15 11 13 20 13 23 9 11 12 5 18 20 17 18 11
3 2 2 5 7 8 10 12 15 17 19 21 22 24 25 27 29 31 34 35 34 30 29 26 23 21 20 44 28 32 25 27 17 13 16 19 22 14 10 3 10 10 10 13 12 9 7
4 5 6 6 6 7 11 13 15 18 19 20 22 23 24 25 26 29 32 34 33 28 26 23 20 15 17 22 21 26 24 30 30 25 25 13 14 19 5 4 2 4 3 4 4 16 11
6 6 3 3 5 8 11 13 15 17 18 19 20 22 24 26 27 30 33 34 30 23 19 18 16 9 16 9 7 8 10 12 13 22 25 11 16 8 6 7 5 2 6 4 5 11 6
4 2 2 4 6 9 11 13 15 16 18 20 22 24 26 27 28 29 32 31 24 14 10 10 3 6 18 7 9 12 10 8 6 11 11 15 8 7 5 8 12 8 5 6 9 3 7
5 3 5 6 8 8 11 12 13 16 18 20 22 24 26 27 27 28 27 30 15 7 20 15 28 26 38 33 38 27 13 12 6 11 9 12 10 17 17 15 11 8 9 12 3 4 4
5 3 3 5 7 10 11 12 13 16 18 20 23 25 26 26 27 21 24 9 13 16 18 32 43 44 48 36 20 36 26 8 9 7 8 5 20 12 13 11 13 11 14 14 7 8 5
4 7 7 9 9 9 10 11 12 15 18 20 22 24 25 27 24 10 15 13 17 24 8 27 30 23 24 23 26 36 15 11 8 13 14 14 3 14 12 9 12 11 15 9 11 3 4
6 4 5 5 7 8 9 11 12 15 18 20 22 23 24 27 11 24 13 18 18 15 5 9 4 6 7 6 10 33 25 15 6 16 13 9 9 7 13 17 14 15 10 9 6 4 7
6 1 5 6 7 7 10 11 13 16 18 20 21 21 23 20 22 23 22 19 18 2 6 2 1 9 5 7 17 4 26 21 11 8 8 8 7 10 5 8 13 9 9 9 5 4 2
3 4 6 6 5 8 10 11 14 16 17 19 19 21 22 21 21 21 21 18 7 2 8 7 4 15 14 12 6 5 17 8 8 4 2 4 2 6 7 3 10 10 8 6 4 2 4
4 4 4 4 7 8 8 11 14 15 17 19 20 20 20 21 20 18 14 11 1 5 9 8 13 16 18 24 5 8 13 8 10 8 6 3 3 3 6 8 7 3 6 2 3 4 4
4 4 7 6 5 6 8 10 13 14 17 19 19 19 19 12 15 11 5 1 5 7 8 18 14 26 10 9 3 10 16 9 3 6 7 9 5 8 4 4 9 5 5 4 4 3 1
5 7 5 6 3 7 7 10 11 13 16 19 20 21 10 10 15 7 2 1 4 4 8 15 22 5 4 13 9 7 8 9 4 5 5 6 2 2 3 4 6 4 4 2 3 1 1
8 8 6 3 6 4 9 11 11 10 13 18 21 16 9 14 13 3 2 4 6 11 18 16 7 10 6 10 9 1 3 2 1 6 1 6 6 3 6 5 11 3 8 4 2 2 2
10 7 5 7 7 5 8 10 7 8 12 16 17 6 8 13 15 1 2 5 7 16 17 5 6 10 6 8 12 3 5 3 6 1 2 2 3 4 4 1 7 4 3 4 4 2 1
10 8 7 3 7 6 8 6 6 7 11 14 9 3 11 14 4 2 3 5 11 16 20 10 5 5 7 8 5 4 6 9 18 2 3 1 4 5 3 2 7 3 4 3 2 4 1
10 10 6 8 9 8 8 8 5 6 10 13 10 4 6 9 3 4 6 9 10 11 9 4 6 6 3 5 5 6 8 14 15 5 2 0 2 6 8 5 7 6 3 6 7 3 4
14 13 8 10 9 9 9 6 3 2 7 10 4 3 3 3 2 5 9 8 14 16 11 7 7 6 3 5 7 7 9 10 15 11 13 5 5 5 5 6 3 4 2 3 3 2 1
13 11 10 13 10 10 9 7 3 2 3 6 4 1 2 4 4 5 5 5 13 8 6 10 2 10 5 5 7 8 10 7 12 22 5 3 6 6 8 6 3 2 4 3 5 6 5
15 14 11 13 11 10 8 6 5 5 3 1 2 1 2 5 10 6 3 4 13 18 5 5 10 12 6 6 5 4 7 3 1 7 5 5 2 2 3 5 4 1 6 4 7 8 11
14 13 14 12 11 10 8 8 8 8 5 2 4 5 3 3 4 3 2 6 11 15 8 7 13 5 6 7 14 16 11 9 4 6 5 2 3 1 2 2 4 4 2 3 2 3 3
14 13 14 15 14 10 11 9 11 9 9 8 8 5 3 3 2 4 9 13 13 14 8 11 12 7 9 25 18 6 5 7 5 5 2 1 2 2 2 1 1 1 6 2 2 4 8
13 14 14 15 12 10 12 10 12 9 9 10 11 9 4 2 4 8 6 8 15 13 4 4 8 12 19 11 4 3 2 1 4 8 3 0 2 3 2 1 5 2 6 6 6 9 10
15 14 14 17 10 11 14 14 15 10 10 11 10 8 6 1 3 3 4 4 3 5 7 4 12 10 14 2 2 3 3 3 3 2 6 4 4 3 2 2 1 4 9 13 4 8 14
17 16 16 17 12 15 13 14 17 12 11 11 11 10 8 3 8 8 3 2 4 3 3 6 12 10 15 5 3 3 2 3 2 3 2 3 4 4 2 1 5 6 16 13 2 5 13
18 18 19 20 14 18 14 13 18 15 13 11 12 12 17 6 12 13 8 10 9 6 2 7 5 4 5 5 4 3 3 3 2 2 3 2 1 1 2 3 3 16 6 4 2 12 10
19 17 21 18 16 14 15 14 18 15 14 13 9 11 9 16 9 10 12 15 17 12 4 3 1 2 3 2 3 2 1 3 4 2 4 2 4 2 3 3 9 14 10 12 14 12 14

GFSGBSN_850_spd_096.txt.gz
Wind_Speed
8 6 4 4 4 4 4 5 6 8 11 14 16 19 21 23 24 25 27 28 29 30 30 29 28 27 23 12 22 21 26 27 24 17 12 11 19 26 23 16 25 24 21 20 23 27 24
8 6 5 4 3 1 2 4 7 10 13 16 17 19 21 22 24 26 27 29 29 29 31 30 26 23 13 21 18 8 10 17 10 14 16 18 15 23 17 23 18 10 26 26 24 24 24
9 7 4 3 3 1 1 5 8 11 14 16 18 20 21 22 24 26 28 30 30 29 28 27 25 20 17 39 23 27 29 22 16 13 16 17 22 15 14 14 23 22 20 17 16 17 17
10 8 7 5 3 0 3 6 9 12 14 16 18 20 22 25 27 29 31 32 31 28 26 24 18 11 16 19 22 25 23 24 26 28 21 13 12 20 17 14 8 17 19 19 19 21 25
9 8 8 6 4 1 4 7 9 11 13 16 18 21 25 27 29 31 33 33 30 24 19 15 8 9 17 13 9 4 8 13 10 18 22 17 14 20 17 16 14 15 16 20 16 12 17
9 9 7 5 3 2 4 7 9 11 13 16 19 22 25 29 30 31 32 31 21 11 8 10 8 8 15 9 7 10 11 7 8 9 15 20 15 14 16 16 21 16 15 17 12 10 16
12 9 7 5 3 2 5 7 9 11 14 17 20 22 25 27 28 27 28 21 12 6 16 17 28 33 41 40 34 38 26 16 13 17 17 27 17 24 29 23 19 17 13 17 11 9 11
11 9 7 6 3 4 5 7 8 11 14 17 20 22 24 25 25 16 19 10 9 9 20 30 36 38 41 37 30 37 18 16 17 18 21 15 25 21 20 20 16 9 16 20 14 9 13
12 12 8 6 4 3 4 6 8 10 13 17 19 21 23 25 20 16 15 6 13 16 10 25 17 11 13 11 24 40 21 30 20 19 23 22 11 19 16 15 17 21 22 18 15 12 13
11 9 9 6 3 3 4 5 7 10 13 16 18 19 22 26 10 18 10 16 16 13 6 8 4 3 9 8 9 19 21 28 20 20 17 18 16 14 17 21 20 20 18 14 12 10 12
11 8 6 6 3 3 3 5 7 10 12 15 17 18 20 20 18 15 16 19 17 3 7 7 3 3 6 4 18 9 16 28 21 17 14 12 15 12 16 20 19 18 11 12 15 13 13
9 8 8 5 4 3 3 4 8 10 12 15 16 16 19 15 15 15 21 17 7 6 10 7 15 19 24 20 22 21 11 21 21 15 17 7 10 13 18 8 15 9 11 9 7 7 9
13 9 5 5 4 3 2 4 7 9 12 14 14 14 17 14 11 18 15 10 6 8 15 9 25 25 25 17 19 10 15 20 16 17 15 9 11 8 15 11 9 15 16 7 7 6 8
10 10 10 4 1 1 3 4 6 8 10 13 14 15 10 9 18 14 9 5 8 12 17 23 22 29 7 10 8 10 16 18 18 14 14 13 9 11 12 12 10 18 17 5 8 6 6
10 7 7 7 5 4 1 4 6 7 9 12 15 8 8 13 17 9 7 4 7 12 19 19 25 12 10 19 8 5 16 16 14 12 6 13 8 12 12 9 15 14 12 2 0 2 2
11 12 6 4 5 3 3 5 6 4 7 12 14 4 6 15 15 6 3 7 9 16 17 18 16 8 18 20 14 8 12 12 10 14 2 7 6 12 5 10 3 12 12 6 4 5 6
13 12 8 6 7 5 3 5 3 3 7 10 8 0 9 14 7 3 6 8 16 17 18 9 11 11 14 14 11 6 6 10 4 10 5 10 7 10 10 11 14 9 9 3 3 3 1
13 11 10 6 5 7 5 4 2 3 6 9 4 0 8 13 3 4 7 11 17 14 15 7 6 11 13 14 7 3 3 10 10 4 6 1 6 13 9 2 6 5 6 6 4 4 2
14 11 6 7 8 9 6 5 3 2 5 9 3 2 5 7 4 6 11 11 14 13 13 6 7 6 14 7 5 8 5 16 18 8 2 0 8 10 9 9 7 6 7 6 7 2 4
13 12 7 9 9 8 7 4 4 2 3 6 2 1 2 3 2 8 12 9 16 17 8 7 10 8 6 4 10 11 12 15 18 17 20 4 3 2 5 9 10 9 8 5 2 2 2
13 16 10 10 10 9 8 6 5 5 0 3 3 2 2 3 3 9 8 5 15 14 9 11 4 14 11 7 12 13 13 13 19 21 12 6 12 13 14 12 10 9 6 4 4 3 4
14 14 12 13 11 12 8 6 7 8 4 3 2 1 1 7 8 9 4 4 10 14 7 12 14 18 11 9 10 13 14 9 9 7 2 8 4 5 10 8 6 4 2 2 3 3 5
17 15 15 15 12 13 10 8 8 10 5 3 2 1 2 3 5 5 4 8 9 12 6 11 15 15 10 15 23 21 16 13 9 7 8 3 1 2 4 3 2 5 7 3 4 5 6
17 14 13 14 14 14 12 8 8 13 9 7 4 4 2 3 4 6 9 11 11 12 10 14 16 11 14 29 20 7 6 6 3 6 2 3 3 3 2 2 3 6 5 8 5 8 11
10 17 12 15 15 17 13 14 9 14 11 10 11 5 3 4 6 5 8 6 10 8 7 9 15 16 22 16 5 3 2 2 4 13 4 6 2 3 1 2 6 7 9 8 6 6 14
15 9 14 14 19 18 13 12 12 13 10 10 10 11 5 5 1 4 8 7 6 8 8 5 13 13 16 3 3 4 3 3 4 3 7 4 4 1 1 2 2 6 11 11 7 3 14
14 11 11 13 23 13 11 9 15 19 13 10 9 9 7 5 6 4 5 7 5 6 5 8 15 10 14 6 3 4 3 4 2 2 4 3 3 4 3 3 5 11 17 19 4 6 12
14 11 16 18 24 16 13 11 10 20 14 13 11 14 13 5 10 10 9 8 8 7 4 10 5 5 6 5 4 4 3 5 2 5 4 4 3 2 1 1 2 22 8 6 7 13 11
15 11 15 19 24 16 11 15 9 19 15 14 13 11 14 11 7 12 17 21 15 10 8 3 3 4 6 4 5 3 2 3 4 1 6 2 4 4 5 3 6 13 11 8 10 12 13

GFSGBSN_850_spd_099.txt.gz
Wind_Speed
15 12 10 8 7 5 3 2 1 2 4 6 8 11 14 16 19 22 24 26 27 28 30 30 29 29 23 14 29 21 26 29 27 21 22 21 21 25 30 28 31 32 28 33 31 30 32
15 13 11 9 8 7 5 3 0 2 4 7 9 12 16 18 21 24 26 27 28 29 28 26 25 26 15 23 16 11 14 12 12 14 20 26 25 24 28 29 29 30 34 31 32 30 27
17 15 12 10 9 8 5 3 1 3 6 8 11 14 18 21 23 26 29 30 30 28 26 24 22 20 20 36 21 20 22 25 24 23 25 23 27 27 22 25 34 35 26 22 23 32 29
18 15 13 10 9 8 6 4 2 4 6 9 13 16 20 23 25 28 30 31 29 27 24 21 18 12 18 17 19 21 23 27 29 30 27 23 20 29 31 21 25 20 26 25 26 22 22
18 16 14 13 12 9 6 3 3 5 8 11 14 17 21 24 27 28 30 30 29 22 18 13 9 12 20 12 14 12 10 14 20 23 30 28 20 24 22 22 19 24 22 30 26 26 25
17 16 15 15 13 10 6 2 2 5 8 12 15 19 22 25 27 29 29 30 18 18 11 11 12 11 24 12 9 11 13 15 13 17 22 31 22 19 20 19 22 26 25 24 24 25 25
18 17 17 15 13 9 6 2 3 6 9 13 16 20 23 24 26 23 30 27 15 8 13 18 30 31 43 37 29 30 31 31 25 26 17 27 21 25 33 31 24 21 20 17 15 19 12
20 19 18 16 12 9 6 3 3 6 9 13 16 20 21 23 23 20 21 15 12 13 21 31 42 40 37 29 32 31 22 28 28 25 22 21 27 32 26 28 27 15 6 20 24 12 14
21 19 18 16 12 9 6 3 3 6 9 12 15 17 19 22 14 17 14 12 15 16 12 29 24 8 2 10 20 25 12 25 25 24 28 25 28 27 26 25 23 18 20 21 16 17 20
23 22 18 15 12 9 6 4 3 5 8 11 13 15 18 20 8 16 10 17 15 14 6 10 10 5 6 15 12 26 25 22 25 27 25 25 28 23 27 22 21 23 23 22 20 14 16
21 20 19 14 12 10 7 4 3 4 7 9 11 14 16 16 10 13 17 17 12 5 7 15 6 7 21 23 29 22 9 16 24 25 20 20 23 20 21 19 19 17 15 20 20 17 17
21 17 15 14 13 9 7 4 2 4 5 7 10 12 14 9 6 13 16 14 6 5 6 19 23 27 25 32 30 24 28 17 25 27 24 22 18 17 18 16 16 16 13 11 13 14 14
18 18 16 14 13 10 7 4 1 3 4 6 8 10 8 6 9 18 15 13 7 7 23 19 29 26 30 15 26 14 12 15 18 23 17 11 14 19 11 15 10 11 12 6 8 9 12
21 19 15 13 11 10 7 4 1 2 2 5 8 5 5 5 13 13 11 13 15 20 21 24 22 31 15 17 16 20 10 15 22 24 14 9 12 13 13 18 16 20 21 8 6 10 12
21 20 17 12 12 10 7 4 1 1 2 4 7 3 3 10 12 9 12 8 11 17 20 22 29 19 14 19 15 13 15 15 21 24 8 13 4 13 14 13 17 17 15 9 5 6 3
18 15 14 14 14 10 7 4 2 3 2 4 3 0 2 13 10 7 6 9 15 15 20 19 17 10 19 26 18 18 10 15 19 16 7 4 4 15 13 13 16 16 17 8 4 2 4
18 19 14 12 12 11 7 4 3 3 1 4 3 4 2 12 5 5 5 10 15 17 17 12 14 19 22 17 12 12 10 10 1 16 10 4 9 11 10 11 13 10 13 7 7 5 3
20 19 14 13 12 13 7 4 5 3 1 5 0 2 4 8 4 4 6 13 14 14 15 9 10 11 11 15 9 8 6 15 13 12 11 8 3 13 18 17 7 18 14 13 4 8 1
20 17 14 14 8 13 8 6 5 4 3 1 2 2 3 5 3 5 10 9 14 14 13 9 5 5 13 7 7 11 7 15 25 12 1 1 6 11 8 7 13 11 9 9 3 1 5
19 15 9 15 12 9 9 6 7 5 4 7 0 0 2 2 2 8 11 8 14 12 6 7 6 10 10 8 18 8 11 14 21 17 18 14 7 10 8 11 12 8 10 7 7 4 4
18 16 14 13 11 9 9 8 8 7 6 5 2 2 2 2 1 6 6 5 11 11 7 13 6 18 17 8 13 14 19 17 14 24 11 10 4 9 1 15 11 9 9 7 5 2 3
22 18 16 13 14 11 10 9 9 9 7 2 3 3 3 7 6 6 1 6 9 13 8 12 15 20 16 15 14 22 18 12 6 11 7 11 5 11 13 13 13 10 6 3 4 2 2
16 19 15 14 14 12 11 10 10 11 9 2 2 0 2 5 3 3 2 8 12 12 6 12 16 17 14 20 28 27 18 12 9 6 9 5 3 2 9 6 13 10 8 5 9 12 11
19 17 16 15 15 11 16 11 10 14 12 4 3 1 2 3 3 5 7 10 11 11 11 15 15 12 19 30 22 5 6 6 7 6 3 9 5 3 4 5 6 10 10 7 14 15 16
16 15 17 13 15 14 16 13 9 14 13 7 5 3 2 3 6 2 8 8 12 7 8 12 15 18 20 19 8 2 4 4 7 9 5 6 5 3 1 7 13 7 10 9 7 12 16
14 13 19 12 17 14 19 13 15 13 13 10 7 7 2 4 3 4 8 6 8 9 7 6 15 14 16 7 6 4 5 7 5 3 6 6 5 4 0 4 4 7 16 16 11 4 16
19 15 10 5 14 20 16 14 10 14 13 10 9 9 5 4 8 3 8 9 9 9 7 8 17 10 13 7 4 4 3 6 4 5 6 5 4 6 2 2 6 11 22 23 5 5 15
21 14 10 10 17 22 14 13 8 17 17 11 9 9 10 5 12 10 9 8 11 9 7 14 9 8 7 6 5 5 4 6 4 5 6 7 6 5 3 2 4 24 7 6 7 12 11
18 14 9 14 16 24 13 13 10 13 21 15 8 12 9 12 9 10 14 18 17 13 10 6 3 5 6 4 6 3 3 2 6 1 9 2 5 3 6 3 4 10 10 8 8 9 12

GFSGBSN_850_spd_102.txt.gz
Wind_Speed
21 19 17 15 13 11 9 7 6 4 2 3 5 7 11 13 16 18 21 24 26 27 27 28 27 27 26 11 25 22 26 26 27 21 23 24 27 25 23 24 32 30 32 37 40 38 36
22 20 18 16 14 12 10 9 7 6 4 3 5 9 12 15 18 21 23 26 27 26 27 26 25 25 17 19 23 10 13 17 19 18 18 21 26 30 34 26 25 34 32 33 37 35 37
21 20 19 17 15 13 12 10 8 6 5 4 6 9 12 16 20 23 26 27 27 28 28 24 23 22 20 39 25 23 23 25 23 24 28 26 27 28 32 26 36 33 29 29 28 35 29
22 20 19 17 15 14 13 11 8 7 4 4 7 11 14 18 21 24 26 27 30 28 23 21 22 13 16 16 15 22 23 27 26 29 34 32 29 34 35 37 36 27 27 24 31 27 28
23 19 18 17 16 15 14 11 9 7 4 5 9 12 15 19 22 25 28 31 22 20 19 16 13 9 18 11 14 17 14 20 19 20 26 28 29 32 30 23 22 25 21 31 31 26 24
25 21 20 20 18 17 15 12 9 6 4 6 9 13 16 19 22 25 27 26 18 16 12 14 13 13 24 20 16 35 30 27 23 20 22 24 24 19 19 19 20 24 26 24 25 22 24
28 24 22 22 19 18 15 12 9 6 4 7 10 13 15 18 20 22 27 25 25 9 16 21 29 32 45 44 44 35 27 27 32 33 23 25 19 24 32 26 27 26 27 26 20 12 15
31 26 23 22 20 19 16 13 10 5 4 7 10 13 14 17 16 21 18 18 14 15 22 33 34 32 38 36 35 30 24 26 21 23 25 22 22 26 28 28 29 30 26 24 16 19 17
30 27 25 22 22 19 16 13 9 5 4 7 9 11 13 14 12 16 10 14 14 15 8 26 7 8 16 16 17 32 20 18 21 24 26 27 24 27 25 29 29 27 28 19 17 9 11
32 27 23 23 22 18 17 14 8 5 5 6 8 10 13 11 9 12 8 16 14 11 5 6 6 4 14 23 28 18 29 32 24 25 24 27 27 27 26 28 29 24 26 15 17 5 3
29 28 29 25 22 18 17 13 8 6 5 4 6 8 10 14 6 9 15 15 12 5 7 11 25 10 30 32 37 36 38 37 16 19 20 27 25 20 22 24 27 21 17 19 13 9 7
32 30 28 23 20 19 17 13 8 7 4 2 5 8 6 6 9 10 18 12 8 5 5 21 28 27 28 33 30 38 29 21 28 18 23 27 24 18 28 24 24 10 12 3 9 7 6
29 27 24 23 21 19 16 12 9 7 4 0 4 5 5 8 7 15 13 12 5 6 24 19 31 28 29 26 26 24 27 11 8 17 17 15 21 22 17 19 12 10 13 5 5 7 8
28 22 22 20 20 18 15 12 9 7 4 1 3 3 5 2 13 13 11 11 4 15 16 21 24 28 19 19 20 20 14 11 21 16 11 15 6 19 14 15 12 17 15 6 7 9 11
21 23 21 18 18 17 15 12 9 8 5 3 6 5 2 8 12 8 11 5 8 15 17 19 23 17 20 29 15 12 17 20 8 16 5 3 5 12 14 8 11 17 13 8 3 7 2
23 23 20 19 17 15 13 11 8 8 5 3 5 2 4 12 9 6 5 5 11 12 15 14 12 8 19 20 15 21 13 3 4 4 9 6 2 5 8 7 9 10 13 3 3 2 0
21 21 22 18 17 16 13 10 8 9 6 3 5 4 2 10 7 3 2 10 11 13 13 8 12 11 13 12 17 10 13 17 28 3 10 7 10 10 9 2 13 12 5 4 5 8 0
18 20 19 15 18 16 13 10 9 9 8 3 1 2 1 3 3 4 3 9 13 13 15 11 6 9 6 9 8 6 13 8 33 20 10 10 3 2 12 19 15 7 7 13 4 1 5
20 23 19 14 17 16 13 10 9 11 11 5 2 2 0 3 1 3 7 7 10 13 10 10 7 7 6 4 7 8 15 22 26 16 12 10 3 1 4 3 8 6 11 12 8 5 2
21 21 18 17 13 16 12 9 9 10 9 8 1 1 5 1 5 5 7 6 10 10 7 13 10 11 10 4 12 9 15 8 23 20 24 9 4 6 4 3 10 1 4 2 2 3 5
20 19 16 17 15 12 12 9 9 11 11 6 1 3 1 2 2 4 7 5 9 9 9 10 8 17 15 6 13 11 19 13 14 24 13 6 4 6 8 13 10 7 12 5 10 8 3
21 18 17 14 14 11 11 9 11 12 11 2 4 3 3 8 4 6 1 3 8 10 11 10 13 19 17 14 13 20 22 13 6 11 10 10 4 11 5 19 16 18 8 10 6 14 14
19 20 20 13 15 12 12 8 11 13 10 3 1 2 3 5 3 3 3 6 11 12 7 12 16 16 13 19 26 30 23 12 12 1 6 9 5 6 9 14 9 13 15 16 20 21 19
20 23 21 14 15 14 13 10 12 15 12 4 3 1 1 4 4 3 6 9 10 11 10 14 15 12 20 28 30 21 9 5 7 4 2 6 9 2 3 4 5 7 19 16 21 20 20
23 19 18 15 13 12 11 13 11 15 13 7 6 2 1 4 10 4 5 7 10 11 8 13 12 19 21 23 9 7 1 8 7 4 5 5 5 4 3 4 12 9 16 14 7 14 20
20 18 16 15 10 13 15 14 11 14 14 7 3 3 0 4 3 7 7 11 7 9 8 14 13 19 17 10 5 4 2 4 4 2 9 7 7 3 2 4 0 7 20 24 14 6 17
16 15 17 13 10 14 17 16 12 12 15 8 3 5 1 4 4 8 7 8 10 11 8 13 21 13 14 5 4 5 3 9 6 8 9 8 5 7 5 4 5 15 23 20 4 5 14
17 14 14 11 13 10 19 14 10 10 14 9 3 4 3 4 11 10 7 8 9 11 7 17 9 7 7 7 5 5 4 5 5 13 10 8 6 5 6 6 4 29 8 7 3 9 11
13 16 13 11 10 15 16 13 11 8 16 12 3 1 6 8 10 8 12 14 16 13 12 12 9 7 7 4 5 4 3 4 7 3 10 4 5 3 5 3 4 12 11 9 8 8 11

GFSGBSN_850_spd_105.txt.gz
Wind_Speed
22 20 20 17 16 14 13 12 10 9 8 6 6 5 8 11 14 16 17 20 21 22 24 25 26 26 25 6 28 20 16 16 19 22 24 21 21 19 19 9 20 22 25 33 39 32 39
27 24 22 18 17 16 15 13 12 10 9 7 7 6 9 11 14 17 19 21 22 24 25 24 23 24 18 10 22 3 12 15 16 17 18 21 22 23 24 22 18 16 25 30 34 32 38
30 29 25 21 18 16 16 14 13 12 10 8 8 8 9 13 16 18 21 23 24 25 22 19 22 22 19 41 22 20 23 26 21 25 28 24 24 24 16 11 27 27 23 22 22 34 28
35 33 27 22 19 17 17 16 15 13 11 9 9 8 11 14 17 20 23 24 25 18 18 17 17 17 14 21 13 16 16 19 21 28 30 29 31 34 27 22 28 20 20 19 24 22 24
38 35 31 28 24 20 18 18 17 14 11 10 9 8 12 14 17 20 23 25 22 13 11 13 18 9 16 13 13 20 22 31 32 27 27 24 27 31 27 18 14 12 19 21 23 20 15
40 38 32 30 27 24 22 20 18 15 12 11 8 8 11 14 17 19 21 23 21 6 2 12 12 10 9 17 34 32 36 30 24 30 29 22 25 13 15 11 16 18 14 20 22 16 18
43 39 35 31 29 27 25 21 19 15 12 10 7 8 10 13 14 16 22 28 19 3 21 12 20 29 31 22 26 25 32 33 31 22 14 22 13 15 19 17 20 18 21 19 15 24 5
44 39 36 32 28 27 24 22 18 14 12 9 7 7 9 11 10 13 13 11 10 11 15 14 17 25 22 17 18 29 31 23 20 13 17 14 19 24 19 18 19 23 23 23 18 16 3
45 43 38 33 28 26 24 21 17 14 12 9 7 6 8 8 6 10 6 14 12 15 5 15 6 6 8 17 13 28 25 14 10 16 19 21 23 20 21 22 17 24 21 18 20 3 5
47 40 37 32 30 28 24 21 17 14 13 9 6 5 5 5 2 6 3 17 11 6 3 9 7 7 16 26 22 22 32 16 9 17 16 17 21 23 22 15 20 19 19 22 23 5 3
43 39 36 33 30 27 24 21 17 16 12 8 4 2 2 7 2 4 13 18 6 2 3 16 7 16 32 19 28 15 28 23 16 18 10 14 16 13 19 21 17 21 18 21 21 5 6
43 40 37 33 30 27 24 21 19 16 12 7 4 1 2 2 4 7 16 6 5 3 3 10 15 21 20 21 18 14 18 17 19 12 9 16 21 10 5 7 15 22 1 6 4 2 3
43 36 34 32 29 26 24 22 19 16 11 7 3 2 3 3 2 10 6 5 4 3 12 10 22 23 17 21 13 14 14 11 2 1 4 11 14 14 9 8 15 12 9 1 3 4 4
40 40 35 29 27 27 26 21 19 15 11 6 3 3 3 3 9 9 7 3 3 11 8 15 15 15 8 18 10 18 19 15 3 4 5 4 6 3 6 16 6 5 7 5 5 3 3
39 34 30 27 25 23 23 21 18 14 11 7 4 4 3 9 7 4 3 4 2 6 11 13 15 7 7 13 9 11 17 14 10 4 3 5 5 20 18 15 19 6 6 1 3 2 2
33 29 28 26 23 22 20 19 17 13 11 9 6 4 7 3 1 4 3 2 3 6 8 6 5 4 10 14 13 14 16 11 16 18 20 3 6 10 11 4 3 7 2 4 3 1 4
28 28 27 23 21 19 18 16 15 13 11 8 10 3 5 1 1 1 2 1 3 9 10 7 5 6 6 10 9 6 8 14 17 18 19 2 3 3 1 5 2 4 3 5 2 2 4
29 28 24 22 20 19 17 15 13 13 12 8 2 2 5 5 3 3 2 3 7 10 9 5 5 4 2 7 6 4 3 3 26 21 6 5 4 3 2 5 5 7 5 1 2 3 2
25 23 22 19 17 18 15 13 14 15 14 7 3 4 6 5 2 3 5 3 5 8 6 4 3 5 1 3 5 5 4 12 19 17 11 5 2 3 2 2 4 2 6 9 2 3 3
21 22 21 14 17 17 15 13 15 15 13 7 2 2 4 5 5 3 3 3 5 12 6 6 4 7 2 4 5 7 6 7 25 14 17 9 4 4 5 5 2 4 4 3 7 1 2
21 21 18 13 14 14 15 12 14 15 13 4 2 3 3 2 4 1 3 1 4 4 8 11 4 10 9 2 7 4 7 18 13 15 10 4 7 9 7 11 15 9 13 8 7 9 2
19 18 16 11 16 13 11 11 14 14 11 3 4 1 3 3 1 5 3 3 3 5 5 6 7 12 9 5 4 19 18 12 5 10 7 8 4 5 15 14 12 13 18 23 20 13 15
17 17 14 17 15 11 12 10 16 15 11 3 3 2 2 4 2 3 1 3 6 8 5 13 11 7 7 10 24 32 30 23 15 5 2 2 5 6 3 6 10 13 18 21 21 21 14
20 16 17 15 14 12 10 10 16 17 11 11 5 5 3 3 2 2 4 3 6 7 7 11 14 6 14 28 32 22 2 11 15 9 8 3 2 3 1 5 5 8 14 19 23 22 19
16 18 17 15 14 12 11 11 16 17 13 11 8 4 2 1 6 7 4 5 12 17 9 8 19 19 20 19 4 4 3 4 2 10 3 4 2 3 2 3 7 12 13 10 5 13 18
17 21 21 16 12 12 10 14 14 18 13 13 8 6 4 2 4 10 5 12 3 5 7 12 25 17 17 2 3 3 3 4 1 7 10 7 6 3 1 3 5 6 20 20 5 8 16
19 21 18 15 11 13 11 14 12 16 14 9 4 6 6 0 2 10 4 3 6 7 2 7 18 10 18 3 3 3 3 7 5 7 7 5 5 6 6 4 2 14 22 20 3 3 10
18 17 16 14 10 15 13 15 11 13 15 9 4 3 6 2 6 6 2 4 9 8 2 12 8 6 6 6 4 3 3 4 2 4 4 4 4 4 4 4 3 28 8 6 2 9 13
18 17 18 16 12 14 17 15 10 11 16 11 4 2 3 3 5 7 9 10 9 8 9 6 4 6 7 3 3 3 3 4 5 3 7 4 3 2 5 4 5 12 13 13 11 10 10

GFSGBSN_850_spd_108.txt.gz
Wind_Speed
30 29 28 24 21 20 18 16 15 13 12 11 10 10 9 10 11 12 14 17 19 20 23 25 26 25 21 14 13 10 9 14 16 15 18 19 15 16 8 5 13 15 21 27 31 26 34
35 32 33 29 26 23 20 18 15 14 13 13 11 10 10 11 12 14 16 18 19 21 23 22 21 23 18 5 11 14 17 17 17 15 16 19 15 19 20 16 14 10 19 25 30 37 34
41 36 35 32 27 25 23 19 16 16 15 14 12 10 11 12 13 15 17 19 20 21 20 18 18 18 18 13 10 10 19 13 14 16 21 21 24 25 13 8 16 15 14 21 26 26 13
45 40 38 34 30 27 24 20 19 18 17 15 13 11 11 12 13 16 18 20 21 17 18 15 16 15 12 8 7 19 19 18 18 21 26 25 21 31 23 23 22 12 10 14 19 15 18
48 44 42 38 31 30 27 23 20 19 19 16 13 12 11 11 13 16 19 20 17 18 9 10 14 9 9 12 8 20 15 24 23 29 28 26 23 21 23 9 14 13 15 19 26 14 12
54 49 46 40 36 34 30 26 23 22 20 17 13 11 11 10 12 15 18 20 12 3 4 9 0 7 6 14 13 16 21 29 24 21 18 12 11 5 7 4 14 19 11 16 16 22 14
57 53 48 44 38 36 32 28 25 24 20 16 12 11 10 9 8 12 18 20 9 4 16 6 8 6 18 13 16 19 23 30 22 11 1 4 6 11 15 13 18 16 20 18 19 23 18
61 56 53 47 41 39 35 30 26 24 20 15 12 9 9 7 3 6 11 8 8 10 11 6 5 14 16 17 15 26 27 21 11 8 0 4 13 16 18 16 20 20 22 22 20 24 16
64 60 51 46 44 42 37 32 28 24 20 16 11 8 8 6 2 2 2 10 13 10 2 10 6 9 9 17 22 33 23 26 10 13 9 12 13 14 17 18 19 22 21 19 17 22 17
67 60 51 46 44 40 36 30 31 27 21 16 10 9 8 4 5 1 3 11 5 5 3 6 1 2 15 30 7 31 26 10 4 10 10 14 12 17 15 19 17 19 12 14 21 19 11
72 62 55 52 50 43 36 34 30 27 21 16 13 10 7 4 4 3 5 9 1 0 1 11 1 5 30 12 27 5 27 8 13 18 8 15 15 14 14 16 16 21 15 21 18 15 6
71 63 55 47 42 43 38 33 31 25 22 17 14 10 9 7 5 5 10 4 2 3 2 6 11 14 16 19 18 10 26 17 18 7 8 19 18 4 10 16 10 5 3 13 12 6 9
69 61 53 45 43 40 36 34 29 26 20 17 14 10 9 8 3 3 5 2 2 2 5 5 9 14 18 12 12 8 13 7 7 5 4 4 7 7 8 5 3 5 2 3 2 2 4
68 59 50 46 43 41 34 31 29 24 21 17 14 10 9 4 1 3 2 2 2 2 2 4 5 14 6 10 12 11 13 9 10 5 5 4 6 1 3 4 6 2 9 4 4 3 3
64 54 50 49 45 41 35 31 26 24 20 17 12 10 10 4 2 2 1 4 3 1 1 5 8 4 4 9 7 8 8 7 8 12 7 5 5 9 15 15 5 4 6 6 3 4 3
58 53 50 47 38 34 34 29 27 23 20 17 14 11 10 2 1 1 3 4 2 1 3 3 1 0 4 7 8 8 9 6 14 12 12 4 7 4 6 1 7 10 1 2 2 1 2
55 52 45 39 33 30 29 29 25 23 20 17 13 6 8 6 3 1 3 4 2 9 5 2 2 4 6 6 7 5 6 8 13 14 17 4 4 7 5 6 6 4 2 3 1 3 1
49 40 35 35 34 28 26 26 24 23 20 18 11 3 11 9 2 2 2 2 2 5 4 2 1 4 5 4 4 5 4 4 19 17 12 6 3 4 5 6 3 3 3 1 3 0 3
40 36 34 30 29 28 24 25 24 24 23 19 11 6 7 7 3 1 3 1 2 2 2 1 3 6 1 3 3 6 5 11 19 15 9 5 3 4 2 5 5 3 2 2 4 2 3
38 34 30 28 28 24 23 23 23 25 24 17 6 3 4 6 3 5 3 2 2 6 4 4 5 4 2 3 6 6 6 7 30 18 16 6 1 2 5 9 3 7 2 3 4 2 8
32 28 25 25 25 25 22 22 23 24 22 13 5 3 6 2 2 3 4 3 1 2 3 5 4 5 4 4 5 3 5 12 11 5 7 3 2 5 3 8 7 17 8 9 5 7 8
29 27 24 22 22 22 22 21 22 23 19 9 7 4 4 6 11 6 4 5 4 2 2 5 3 9 6 3 5 15 10 4 6 8 5 2 5 6 15 16 21 21 21 22 16 14 13
27 23 20 16 19 21 21 20 23 23 20 7 7 6 4 0 2 4 4 3 1 3 5 4 7 5 5 5 19 26 22 24 11 6 5 6 3 5 2 6 9 14 15 19 20 21 8
25 23 19 21 21 18 18 21 24 21 15 15 12 9 4 1 2 4 6 3 3 4 3 6 12 4 10 25 30 15 8 13 8 9 12 8 5 2 2 5 6 3 10 16 22 18 16
22 23 24 21 19 18 16 21 24 20 18 14 14 7 5 2 1 6 9 3 7 10 5 3 14 15 18 14 4 5 4 3 5 4 7 7 2 2 2 4 7 5 9 6 6 13 15
22 22 23 21 18 15 15 21 24 20 17 13 12 9 4 7 2 3 3 5 2 3 6 4 18 10 16 2 2 3 2 4 2 6 7 7 7 1 1 4 4 4 18 14 6 7 11
21 21 22 19 15 14 17 20 23 21 17 12 10 9 4 5 4 5 3 2 3 2 1 4 13 7 13 3 3 3 3 6 4 6 6 4 3 6 5 4 3 14 21 7 2 2 10
24 24 21 17 15 15 17 18 22 21 16 10 9 9 5 3 3 4 3 2 2 3 2 6 5 6 5 5 3 3 2 3 2 4 3 4 4 4 3 4 3 26 6 5 4 8 8
26 24 21 17 17 15 19 16 18 20 16 10 8 7 6 3 3 3 4 5 7 4 0 2 1 2 3 3 2 2 2 3 4 2 6 4 3 3 5 3 4 12 14 13 10 11 10

GFSGBSN_850_spd_111.txt.gz
Wind_Speed
33 33 32 28 28 25 23 21 20 18 16 14 16 15 14 13 13 13 14 15 17 19 21 23 23 22 21 11 7 8 11 11 12 11 9 9 10 9 5 5 10 16 15 27 27 29 25
36 33 34 33 31 28 26 23 22 20 19 16 16 17 16 15 14 14 16 17 18 20 22 22 20 19 14 5 7 9 12 10 8 8 6 6 6 13 16 9 9 11 25 27 29 27 23
42 38 37 37 35 31 28 27 23 22 20 18 18 18 18 16 15 16 18 18 19 21 21 19 16 14 17 10 7 5 15 16 13 16 17 12 13 11 10 7 17 17 16 21 23 16 10
46 43 41 40 38 35 29 28 26 25 22 19 19 18 18 16 15 17 18 19 19 20 20 16 12 13 9 3 6 10 10 14 17 17 19 18 20 19 15 13 11 16 11 19 18 9 16
48 50 47 46 41 38 32 32 28 28 24 21 21 20 19 16 15 17 19 18 18 17 12 6 12 6 6 7 10 14 16 19 21 21 14 14 12 15 8 4 6 7 18 21 29 20 17
51 50 49 50 47 42 38 35 32 31 25 24 23 21 20 15 14 16 18 16 9 7 5 7 1 4 3 11 15 20 23 22 22 21 9 6 4 1 1 3 13 13 11 12 17 18 18
55 55 54 54 52 47 42 38 35 32 27 27 23 22 17 13 11 14 15 9 2 3 9 5 4 5 11 16 21 23 27 21 18 3 3 4 1 7 10 6 11 11 14 21 20 18 23
61 58 52 56 57 52 46 41 38 32 28 28 24 21 16 10 8 10 9 4 7 5 8 6 5 14 11 17 15 27 18 10 6 8 3 5 16 13 12 12 12 16 21 26 24 17 12
61 67 58 62 60 53 49 44 38 34 31 27 23 19 16 9 8 5 3 8 7 5 1 7 6 8 7 18 13 11 16 11 7 12 9 12 15 11 9 13 16 20 18 19 21 20 13
62 71 59 66 63 55 53 43 43 35 30 26 23 19 14 10 6 5 1 7 3 2 4 3 1 2 9 20 3 21 7 13 3 5 5 10 12 16 17 19 15 20 14 17 12 8 12
60 70 66 70 65 62 53 44 40 37 31 28 23 20 16 10 7 8 3 2 2 1 1 2 1 1 20 5 14 7 22 5 5 10 2 10 11 11 13 19 13 18 13 16 19 15 8
63 68 69 72 69 58 51 46 42 38 33 27 23 22 14 12 9 8 4 2 2 2 3 2 2 5 9 4 12 11 10 13 12 5 5 16 4 5 11 17 13 11 5 12 14 5 7
68 72 75 76 70 58 50 45 45 41 32 27 23 19 15 12 9 7 5 8 1 3 3 3 3 6 4 7 6 7 7 9 5 7 7 11 3 5 8 6 5 3 2 3 3 1 5
71 74 79 78 69 59 51 47 45 40 33 29 23 18 15 12 10 7 9 2 4 3 1 2 4 4 2 5 6 9 7 5 2 6 8 5 9 4 4 5 5 5 6 4 3 1 3
73 82 79 77 70 58 52 50 48 38 33 28 22 18 15 13 11 9 6 2 3 3 1 3 2 3 4 4 1 5 4 4 3 6 6 6 6 3 11 16 6 2 4 6 7 5 2
77 83 80 77 65 56 53 52 47 39 31 26 23 20 15 10 10 9 2 4 4 1 2 1 1 1 2 5 7 8 4 3 6 9 12 4 7 4 7 0 3 4 3 3 1 3 4
86 87 82 72 61 56 55 54 47 38 31 27 25 14 14 11 8 4 3 4 3 4 3 2 4 1 3 3 2 4 5 10 4 15 17 10 5 7 3 3 2 4 4 4 4 3 2
86 86 76 68 60 58 58 45 41 35 32 31 19 4 18 13 4 1 3 4 3 2 1 0 3 5 5 2 2 2 6 4 14 15 11 5 4 5 8 4 4 2 8 4 2 1 2
75 73 69 59 54 53 44 43 38 36 36 30 13 8 12 14 3 1 3 3 3 2 1 2 2 4 2 4 1 5 4 11 22 11 4 5 4 6 6 1 1 2 6 6 4 2 4
63 58 55 51 47 42 38 39 38 38 34 23 9 3 5 7 3 6 4 3 3 1 3 2 3 3 1 2 4 5 4 8 24 4 14 4 4 3 7 12 10 7 6 2 3 2 8
52 51 48 45 40 38 37 36 36 36 34 17 5 4 8 4 3 5 4 4 4 1 2 1 1 1 2 2 4 5 6 7 8 4 8 2 3 4 11 14 15 20 17 5 10 11 7
45 45 42 41 38 33 35 34 35 36 30 11 8 6 6 7 16 6 4 6 7 3 3 2 2 5 3 4 7 13 9 0 7 5 6 4 4 2 4 16 20 18 22 22 17 11 10
39 38 37 36 34 30 34 31 33 33 27 7 9 12 10 2 5 5 5 6 7 5 1 5 2 1 3 6 15 26 26 25 16 9 4 3 3 3 2 7 5 11 16 17 14 20 7
34 34 33 34 32 30 29 30 30 29 26 13 18 13 6 1 3 4 7 4 5 2 3 2 5 1 4 21 30 17 13 15 13 13 15 4 5 2 2 1 5 2 11 8 18 16 14
31 30 32 31 30 29 27 28 27 25 18 20 21 9 5 3 3 4 7 6 5 5 2 2 4 10 13 12 4 5 4 5 3 4 4 4 2 2 2 5 5 3 7 6 6 9 14
28 30 31 28 26 24 26 27 27 22 20 18 18 12 8 12 1 5 5 4 3 1 4 1 8 6 10 2 2 2 2 3 4 8 3 4 9 2 3 3 2 4 15 12 5 4 12
30 29 28 26 23 22 26 27 26 20 18 16 16 14 10 8 4 8 3 4 5 3 2 3 8 7 11 3 2 2 2 2 3 5 5 4 3 6 4 3 4 11 13 4 2 2 7
29 28 27 23 20 20 25 27 24 21 18 15 17 14 10 7 9 8 8 7 6 3 3 3 2 4 4 4 2 2 2 2 2 2 3 4 3 3 2 3 2 20 4 3 4 8 8
28 27 24 22 20 22 24 26 24 21 17 14 16 13 11 7 8 9 6 2 3 2 3 1 2 0 1 3 1 1 2 3 3 1 4 3 3 2 4 3 5 13 15 13 11 11 9

GFSGBSN_850_spd_114.txt.gz
Wind_Speed
32 29 28 28 27 26 25 21 22 21 20 19 19 17 16 15 15 15 15 16 18 20 22 23 26 25 22 10 4 8 13 15 14 13 10 7 5 2 3 4 11 10 6 15 13 21 20
35 33 32 31 28 28 26 26 24 24 21 20 21 19 19 17 16 17 18 17 18 20 23 24 23 21 14 7 4 6 10 10 9 11 10 8 4 7 10 6 6 7 21 22 13 17 15
36 35 34 34 32 31 29 29 29 27 23 24 22 20 20 18 17 17 19 19 19 21 23 21 19 14 14 3 4 5 11 9 13 14 13 11 13 8 4 6 18 18 12 18 16 6 7
40 41 36 34 38 34 34 31 31 28 26 26 23 21 21 19 18 18 18 19 19 21 21 16 10 11 5 3 3 6 9 13 14 15 15 11 8 13 10 15 9 5 6 13 3 4 17
47 37 38 41 37 41 39 35 33 30 28 27 25 22 22 19 18 18 19 17 19 19 13 8 9 5 2 6 10 13 18 20 20 16 15 11 10 8 10 3 7 3 12 14 24 7 9
47 43 45 42 41 40 42 42 38 33 31 28 27 23 21 19 16 18 19 15 14 10 8 5 2 3 1 8 16 20 15 12 16 15 8 0 2 3 3 3 11 10 7 10 15 22 17
46 43 48 49 44 42 41 46 43 38 33 31 26 23 20 18 15 17 14 8 3 5 5 6 3 4 6 9 20 15 9 19 4 3 2 3 1 9 11 10 15 13 11 15 20 22 20
43 44 52 52 48 50 47 45 47 41 37 31 28 25 18 17 14 14 10 2 2 4 7 6 5 9 9 11 9 10 15 6 3 5 1 2 9 14 10 10 10 11 15 19 20 19 15
45 44 49 51 53 53 56 47 50 46 40 33 30 22 19 14 12 11 6 3 3 6 2 4 3 5 4 14 5 6 8 10 3 2 3 5 9 6 12 13 12 15 12 19 22 22 18
45 48 47 49 57 61 60 51 56 49 43 37 34 25 19 12 11 11 5 1 4 4 4 2 0 1 4 12 3 7 7 5 3 3 5 7 5 5 6 9 9 12 13 16 19 13 9
48 47 49 47 49 62 64 53 58 52 45 42 35 30 21 18 7 12 7 5 3 3 3 1 3 0 11 4 10 5 13 2 4 5 3 7 4 5 6 7 5 11 11 13 18 16 13
53 52 45 48 48 61 58 57 61 51 49 41 36 28 24 19 13 11 8 8 4 5 5 2 2 4 5 2 4 10 6 7 6 4 4 12 10 5 5 4 6 9 8 14 11 2 5
58 50 52 49 53 58 63 65 63 55 47 39 36 30 24 19 17 16 12 11 4 3 1 1 1 2 2 4 5 5 4 5 4 8 8 12 3 3 3 5 2 3 3 4 3 1 5
70 63 57 53 51 58 71 69 63 59 44 42 34 29 22 19 17 17 20 4 3 2 2 2 2 2 2 6 2 5 5 5 5 4 9 6 9 3 5 6 3 6 5 3 5 3 6
73 70 59 57 58 69 72 63 67 57 46 46 35 24 23 23 21 21 10 3 5 5 4 3 2 3 3 2 1 6 4 2 2 4 5 6 6 5 10 10 5 1 3 5 5 8 7
77 69 62 65 70 74 75 72 66 52 50 50 36 25 22 24 20 21 4 4 5 4 6 3 3 3 1 2 3 3 3 2 1 2 6 5 10 5 5 2 5 5 1 2 2 5 4
70 64 58 64 81 83 80 75 64 55 51 42 34 14 23 22 21 8 4 5 4 7 8 4 4 3 3 2 2 1 3 5 3 3 4 9 6 8 7 4 4 2 3 3 3 2 2
49 50 57 81 83 85 81 75 63 61 53 39 24 3 28 25 5 2 4 5 5 5 6 2 4 4 5 4 3 2 5 5 2 8 9 2 5 6 12 18 5 3 4 4 3 2 2
39 53 76 91 88 82 79 71 68 65 58 44 19 9 24 20 4 2 3 4 3 3 4 5 5 4 3 6 1 5 4 6 6 4 2 4 4 6 7 1 2 3 4 8 7 4 4
49 78 87 87 84 79 73 67 68 66 55 29 14 4 6 11 4 6 6 4 4 4 3 4 3 5 2 1 4 3 3 4 16 3 5 9 3 5 5 5 7 7 9 2 1 3 4
76 80 78 79 77 76 67 65 64 56 44 26 7 5 11 5 4 5 5 6 5 4 4 6 2 4 4 1 3 3 4 5 5 2 4 3 3 3 7 9 11 21 16 14 15 9 6
63 69 68 66 64 66 63 66 57 55 37 14 9 7 8 6 18 7 5 5 6 4 5 3 4 1 4 5 6 5 3 2 5 4 6 1 3 3 3 3 5 17 21 18 13 12 11
48 49 51 51 56 63 55 56 55 50 32 7 12 21 12 5 4 5 5 6 7 7 5 6 6 3 4 6 8 19 22 17 11 3 3 3 3 3 1 6 9 4 10 14 11 18 5
44 45 48 54 54 52 51 50 50 42 23 17 29 17 9 3 5 5 7 4 7 6 6 4 4 3 2 14 21 16 12 12 10 10 13 3 4 2 2 1 4 2 7 6 17 14 11
37 39 41 42 47 50 43 44 44 36 22 21 25 12 7 4 6 5 10 6 10 8 3 4 1 4 8 8 3 4 3 2 3 4 6 10 3 3 1 2 3 2 7 6 6 8 12
34 33 34 40 37 39 38 37 37 32 25 22 22 14 12 11 2 14 7 8 4 3 2 1 1 2 5 2 2 1 1 2 2 3 5 5 2 3 1 1 2 4 11 8 7 4 11
32 30 30 33 35 37 35 33 31 28 26 20 20 16 18 10 6 13 5 6 7 5 3 1 3 4 7 2 2 2 2 2 1 3 3 3 2 4 4 3 3 8 12 5 2 1 9
31 29 29 29 33 34 33 30 28 26 22 20 19 16 13 9 10 10 10 11 9 5 3 2 3 4 4 3 1 1 1 2 1 2 2 3 3 3 2 3 1 18 3 3 6 7 8
30 28 25 26 29 31 29 26 24 22 19 16 20 17 15 11 14 15 14 11 9 7 8 3 4 3 2 3 1 1 2 2 3 1 3 3 3 2 5 2 5 11 14 11 8 10 7

GFSGBSN_850_spd_117.txt.gz
Wind_Speed
32 30 27 26 22 22 21 19 17 16 16 17 18 19 16 16 16 15 15 16 17 19 21 22 23 23 20 8 1 5 9 9 8 9 11 11 7 4 2 4 9 10 9 8 7 23 25
33 30 29 27 26 24 23 22 18 18 18 18 20 20 18 17 17 16 16 17 18 20 21 22 22 21 13 4 3 3 8 7 9 11 11 9 5 5 3 4 5 5 16 21 17 19 20
36 32 30 31 29 27 25 25 20 19 18 21 22 22 19 18 18 17 17 18 20 20 20 20 19 15 9 2 4 6 7 9 10 10 13 9 7 4 4 5 12 13 19 24 22 18 10
35 39 36 37 33 30 28 26 26 26 19 19 23 22 22 19 19 16 17 19 19 20 20 16 13 11 1 4 4 6 11 12 13 12 10 6 5 5 4 8 9 11 13 10 6 14 20
37 31 38 33 37 35 31 29 27 30 28 24 24 24 22 19 19 18 16 18 18 18 17 13 9 3 3 2 6 12 10 12 13 8 6 6 4 2 4 6 7 2 13 19 23 7 15
36 36 32 40 42 37 29 33 32 29 33 31 28 25 24 19 18 16 16 15 15 15 13 5 1 2 3 2 12 8 5 12 9 6 2 2 1 1 0 3 6 11 17 20 23 16 19
32 33 37 27 45 38 39 34 33 34 32 35 31 28 24 19 16 13 13 10 8 6 4 5 4 3 2 7 8 5 9 9 3 1 1 2 2 8 12 12 15 15 17 24 28 25 23
35 36 34 41 41 40 39 38 38 32 33 35 35 29 24 18 15 12 15 6 7 6 6 7 8 9 5 5 5 4 8 5 2 2 2 0 7 7 6 11 12 14 17 24 25 16 13
31 35 38 38 40 41 37 43 45 37 37 38 37 33 27 19 13 13 13 9 5 5 2 3 5 3 2 5 1 3 5 5 1 1 2 5 4 2 7 12 10 14 14 18 19 24 19
33 33 36 38 39 38 35 44 40 44 41 42 39 37 26 24 15 13 11 6 2 3 2 3 4 3 1 4 1 4 6 2 0 3 4 8 4 4 6 13 7 6 9 13 16 12 11
33 37 37 37 38 40 41 42 46 51 45 45 40 36 28 25 13 15 11 10 5 2 3 3 3 4 2 2 3 2 7 1 3 4 2 4 5 5 12 7 9 10 6 13 16 15 14
37 42 42 41 37 37 40 40 40 52 50 53 43 38 35 30 23 15 14 12 7 2 7 4 3 2 3 4 4 8 3 2 2 3 5 9 8 5 5 5 12 8 7 14 8 4 5
41 43 45 44 40 36 35 38 40 57 58 50 47 40 32 29 25 19 17 14 2 5 2 5 3 2 2 2 2 4 3 4 4 5 6 10 3 3 6 5 2 3 5 5 3 1 6
47 46 50 50 45 39 33 32 42 54 57 54 47 37 34 30 23 23 23 3 7 3 4 3 5 3 2 3 1 5 1 2 3 3 3 4 6 2 4 4 6 8 4 3 5 6 10
47 48 50 50 49 44 39 35 44 60 61 56 44 36 35 28 24 27 16 4 7 6 5 7 5 4 1 1 1 1 1 2 2 2 3 3 6 5 14 8 3 2 3 2 5 7 4
54 55 60 65 64 59 53 38 55 62 60 56 46 42 38 29 28 28 4 6 5 5 7 4 5 4 4 3 2 1 2 3 2 3 2 1 8 8 5 6 7 6 1 4 2 4 5
59 63 66 74 72 64 60 47 62 70 56 49 41 19 30 32 24 13 5 5 4 11 12 4 5 5 4 5 3 2 1 1 3 3 4 5 5 7 11 3 7 6 5 5 3 4 4
68 76 80 80 79 74 67 54 74 70 62 56 29 5 33 36 10 5 3 5 7 8 8 4 4 3 5 5 4 3 3 4 3 2 3 0 4 6 14 17 6 6 11 7 4 2 1
84 85 84 69 63 66 65 68 86 78 73 52 19 15 33 35 6 6 4 4 4 5 5 5 4 3 3 5 2 4 3 5 5 3 2 0 2 7 6 2 9 5 8 11 7 3 3
79 50 42 47 54 69 74 90 91 77 62 50 16 6 14 22 7 9 6 5 5 6 4 7 5 6 3 3 3 3 3 3 4 4 8 4 3 1 1 4 6 11 17 11 4 2 5
28 26 28 38 57 77 92 91 85 75 61 46 13 6 17 13 11 5 3 6 9 5 4 8 3 5 6 3 3 3 4 4 4 0 3 1 2 5 6 9 12 15 17 17 11 4 4
12 20 32 56 74 91 92 91 82 71 60 31 15 9 14 28 18 10 5 7 12 5 5 5 6 8 5 5 5 5 4 2 5 2 1 1 1 2 3 6 0 8 16 13 10 13 12
35 46 62 76 86 89 89 85 78 77 52 18 19 25 23 16 10 9 6 8 9 9 5 9 10 6 6 6 9 11 13 11 9 5 2 1 2 2 2 3 4 2 8 9 11 14 5
46 58 70 77 82 81 81 79 79 61 34 26 32 26 12 7 11 9 9 6 14 5 7 7 10 5 4 4 11 10 9 11 10 12 13 3 4 2 3 3 2 4 3 10 15 11 8
33 49 53 58 62 65 74 79 57 33 26 37 32 19 10 9 12 10 14 8 15 13 5 7 4 4 2 2 0 1 2 2 2 5 9 9 2 3 3 2 4 4 3 2 4 6 9
34 30 35 47 60 65 65 58 37 25 34 30 31 18 14 10 3 21 13 15 6 4 3 4 5 4 2 1 1 2 2 2 3 4 5 6 3 2 2 3 4 3 5 5 5 3 10
35 39 43 49 52 52 58 41 38 29 32 24 20 22 26 13 10 20 5 7 10 6 4 4 3 2 2 2 2 1 2 0 2 1 2 1 1 2 3 1 3 7 9 3 3 3 5
33 38 42 42 44 45 45 38 28 28 24 21 21 23 18 13 13 16 17 14 11 8 4 7 4 1 2 3 1 2 2 2 2 1 1 1 1 1 1 0 2 16 2 1 7 7 7
41 37 36 39 37 37 37 32 29 27 21 17 22 17 30 17 21 23 20 14 11 10 17 6 4 3 3 3 1 2 2 1 1 2 3 1 2 1 3 3 5 10 12 10 9 10 8

GFSGBSN_850_spd_120.txt.gz
Wind_Speed
33 31 28 26 26 22 19 17 15 15 13 12 13 11 12 13 14 13 12 13 16 17 17 19 21 21 17 5 0 2 6 6 7 7 8 8 5 5 5 6 10 15 9 9 11 18 24
27 29 27 27 28 24 23 20 17 17 17 15 14 13 15 13 15 14 12 14 15 17 18 18 19 18 11 8 2 3 3 6 6 7 7 7 5 5 7 6 7 8 16 19 21 22 25
30 30 32 31 28 25 24 23 21 21 19 18 18 14 14 14 16 14 14 15 15 16 17 17 17 14 6 1 5 4 3 7 10 6 6 6 4 5 5 8 5 14 20 19 16 5 4
32 31 32 28 32 31 27 28 26 26 24 21 20 18 17 13 16 16 15 14 16 16 16 15 14 10 2 7 4 4 8 7 7 7 5 3 3 5 6 7 12 12 11 6 3 10 15
31 30 25 29 34 30 27 26 29 27 26 27 23 20 20 17 14 16 16 14 16 15 15 14 10 3 3 5 1 7 6 4 8 3 3 3 2 4 5 8 10 6 10 16 14 3 5
28 32 36 34 33 30 34 29 27 28 32 28 28 23 22 20 16 16 15 13 14 14 13 8 3 3 5 4 3 3 1 7 1 3 2 3 3 6 6 6 8 14 17 17 18 4 21
25 30 29 30 32 33 30 29 27 27 26 28 26 26 23 24 18 16 13 9 5 5 3 5 2 5 2 3 1 1 3 2 1 2 4 2 6 7 6 5 10 13 16 20 19 20 16
23 25 26 30 29 31 27 27 33 30 24 26 26 27 25 24 16 16 13 5 7 4 8 11 12 11 7 3 3 2 2 3 3 4 3 5 8 1 3 5 9 13 17 18 18 6 18
23 23 24 26 29 31 34 33 29 36 34 31 30 26 26 26 16 17 15 12 9 6 6 5 7 7 5 3 2 2 1 2 3 5 6 8 2 2 7 10 11 14 14 16 20 21 20
24 25 24 25 27 30 33 34 36 35 38 32 38 27 26 27 17 17 15 14 7 2 5 7 8 7 6 4 5 3 1 2 4 4 5 8 1 5 9 12 11 14 7 13 17 16 11
25 25 25 25 25 26 31 32 34 32 33 41 39 24 28 31 14 19 12 13 7 6 5 10 7 8 6 4 4 5 2 2 5 4 4 3 6 9 11 7 5 7 14 15 20 18 15
26 26 25 25 29 29 30 31 29 31 28 38 42 33 38 30 18 14 14 11 9 5 9 8 9 9 8 4 4 1 3 2 3 5 9 16 10 9 5 6 8 14 16 19 13 8 7
28 30 28 28 29 32 29 28 27 29 33 38 41 42 40 31 27 21 17 14 5 8 6 9 9 8 8 5 6 2 4 4 1 4 4 7 11 5 7 6 3 5 12 6 4 7 7
33 33 33 33 33 31 33 30 25 26 29 34 48 43 38 37 29 27 26 4 13 8 9 5 8 11 7 6 5 3 6 5 3 1 5 5 5 9 7 2 6 13 5 5 6 9 15
37 38 39 37 36 34 34 33 23 21 25 34 48 42 41 34 28 31 22 9 7 13 10 14 10 9 7 6 4 5 5 4 3 2 2 3 5 2 7 11 7 3 7 5 7 16 7
41 41 43 42 41 38 38 36 25 23 26 46 42 38 31 33 32 33 7 14 19 1 10 14 12 7 11 11 9 7 7 7 6 2 2 1 6 3 2 7 13 12 5 6 3 5 5
43 46 47 47 46 45 43 43 39 23 38 50 38 17 23 30 33 22 9 12 15 7 9 7 7 6 6 6 7 6 6 6 4 4 4 2 3 2 9 2 10 6 6 6 4 7 5
47 50 52 52 52 49 48 47 39 30 46 55 32 5 33 36 14 9 11 12 6 13 6 3 5 6 8 7 6 4 8 2 5 1 2 2 3 5 10 6 5 8 9 10 6 5 3
51 56 58 58 56 56 58 54 53 37 59 47 21 9 43 36 8 12 11 12 7 11 9 7 4 4 3 6 4 5 6 3 5 1 1 3 3 5 5 7 3 4 14 15 13 3 5
54 59 61 66 69 71 69 62 58 50 70 48 16 6 14 18 10 13 18 21 11 9 7 4 5 6 6 5 4 8 5 4 5 4 3 1 3 4 4 3 4 7 14 14 4 4 4
56 65 71 74 76 77 82 81 74 65 78 53 17 8 20 13 18 18 20 17 17 9 9 11 5 8 9 5 7 6 6 5 4 4 5 3 4 4 5 10 1 11 12 14 11 2 5
59 69 71 62 59 56 64 84 81 78 84 56 20 10 27 23 28 19 22 20 22 13 16 17 9 14 11 6 5 10 7 5 3 6 2 4 1 2 7 13 7 5 11 7 8 11 12
53 62 49 46 41 42 52 72 83 94 88 57 31 26 32 26 20 18 21 22 22 17 2 15 13 10 11 8 4 2 4 3 2 2 2 1 1 2 2 8 6 4 5 6 10 13 3
33 33 19 13 26 41 56 72 93 96 77 46 37 40 14 13 18 18 22 20 21 16 11 12 19 11 7 7 1 2 6 10 9 10 11 3 2 2 4 6 6 6 6 10 12 8 7
10 13 14 29 46 61 76 88 85 72 57 42 46 34 13 13 19 13 15 12 19 16 14 17 8 6 12 6 4 5 4 4 4 5 9 9 1 3 3 2 6 5 4 3 1 5 6
22 37 42 63 73 75 74 69 63 54 42 49 40 26 27 15 14 25 19 26 13 8 8 6 8 9 6 4 4 6 5 6 6 7 6 7 9 4 3 5 6 5 1 2 3 4 4
21 42 59 68 64 63 59 55 52 48 44 40 36 29 34 12 14 25 10 16 13 11 6 9 8 5 5 5 5 4 4 1 6 6 6 5 5 8 5 5 4 5 6 3 5 5 7
28 38 51 55 56 53 52 55 49 43 40 40 39 35 25 13 13 12 18 12 14 15 9 13 7 3 4 6 4 3 3 3 4 2 3 3 3 3 3 4 4 9 3 3 9 12 11
38 43 49 44 40 42 44 41 40 39 39 31 39 32 23 21 15 23 20 16 11 11 16 11 2 9 5 3 3 3 3 4 6 4 3 3 2 0 3 3 6 9 11 12 12 13 11

GFSGBSN_850_spd_123.txt.gz
Wind_Speed
27 28 26 28 26 25 24 21 19 16 14 13 14 14 14 11 9 11 12 12 12 13 15 15 14 15 11 7 5 8 7 7 6 5 6 6 6 7 9 8 11 16 13 9 13 17 22
32 31 31 29 29 25 26 22 23 18 16 14 15 16 17 14 11 11 13 14 14 14 15 16 15 13 7 10 6 5 4 4 5 5 7 7 6 8 11 10 10 11 14 18 21 22 23
22 26 25 23 22 28 26 25 23 21 21 19 16 17 17 15 12 13 13 14 15 14 14 15 15 12 8 5 5 3 5 6 7 7 8 7 7 7 7 10 6 12 16 15 15 5 10
32 30 27 31 30 27 27 27 27 22 24 22 21 19 18 17 14 13 15 15 16 16 15 14 14 9 8 6 5 4 5 8 8 7 7 7 6 10 11 10 15 15 13 9 2 6 9
27 29 28 30 28 31 28 26 24 26 24 24 23 22 22 19 16 15 16 16 16 17 16 14 10 6 8 8 6 5 5 5 8 7 5 6 6 11 9 12 12 11 9 15 12 7 7
28 26 28 31 29 24 26 26 24 22 24 23 29 26 22 21 18 15 15 16 18 19 15 9 7 7 9 9 8 5 5 4 4 5 7 7 8 8 10 9 9 12 16 15 14 12 16
21 24 28 26 29 32 32 32 32 30 26 21 21 19 21 20 17 15 14 10 8 5 7 11 5 9 6 6 5 6 7 5 6 8 12 10 9 11 10 6 9 12 16 17 15 13 11
21 21 22 23 27 27 26 29 27 27 24 21 23 16 17 19 17 13 11 6 5 6 11 15 17 17 12 8 8 10 7 7 7 10 4 8 13 2 1 5 10 14 17 19 15 5 14
19 20 20 20 22 24 26 24 24 21 23 22 23 17 17 20 20 16 13 9 9 9 9 14 18 17 14 13 12 10 9 6 10 11 12 13 6 3 6 10 13 15 15 18 18 18 18
20 19 20 20 20 21 23 24 25 27 28 26 26 25 19 24 20 17 11 10 8 3 6 11 9 10 13 9 8 10 8 7 7 9 7 11 4 7 9 12 12 15 11 13 18 15 14
21 20 20 20 20 21 21 23 26 27 27 29 26 26 24 29 15 11 8 9 7 6 5 8 12 13 14 14 6 11 7 6 9 9 6 2 8 10 12 11 4 10 11 16 19 19 18
23 23 22 21 20 20 20 21 23 24 26 27 26 25 29 33 22 15 13 16 14 4 8 8 9 13 15 15 9 5 7 7 5 8 13 19 10 7 11 3 9 12 14 19 20 13 12
27 24 23 23 22 21 19 19 19 18 22 24 25 28 23 33 18 17 18 22 4 6 2 8 9 15 18 11 11 10 10 10 9 7 12 12 16 10 8 10 10 9 12 8 8 6 14
30 29 27 25 25 24 22 20 18 17 17 16 20 26 34 32 20 23 29 2 6 15 20 2 7 13 16 11 11 10 9 11 8 9 8 6 5 13 11 8 6 10 9 7 8 11 18
32 32 31 31 30 27 25 21 18 18 14 15 22 36 36 33 23 28 20 4 10 17 15 9 8 11 13 12 6 11 14 11 7 7 5 3 4 6 6 8 7 3 9 6 11 19 14
36 36 35 33 32 30 27 23 19 19 17 18 34 34 31 29 29 34 5 8 8 12 10 12 14 14 15 15 10 11 12 9 9 6 3 1 4 6 4 6 13 11 6 5 4 5 9
36 37 37 35 34 33 32 28 23 21 21 24 32 15 16 27 27 17 6 10 10 15 19 16 17 11 10 9 14 12 6 8 7 10 5 3 2 6 6 11 4 7 5 4 10 9 6
40 38 38 38 37 36 35 31 25 25 23 32 28 5 26 35 7 7 10 7 11 14 15 5 7 7 10 8 11 1 7 4 8 5 5 2 4 6 7 6 3 5 6 10 5 8 6
43 42 43 44 42 41 38 35 30 29 38 40 20 9 36 41 10 13 11 14 14 15 19 13 8 6 7 4 5 5 6 5 7 6 2 6 5 6 11 9 5 3 7 10 13 12 15
47 46 46 47 46 45 44 41 39 37 41 40 15 5 11 26 25 20 22 15 16 25 19 11 8 8 8 8 7 9 10 8 10 7 2 1 6 8 7 6 2 3 8 9 7 4 3
45 50 50 50 49 50 49 47 44 44 47 47 20 10 18 9 16 13 21 13 20 13 15 14 6 9 11 7 11 7 11 10 10 7 6 4 4 7 11 3 3 3 2 6 6 8 4
46 47 49 52 54 55 53 52 51 51 54 51 23 20 28 16 34 22 21 20 27 23 18 18 7 15 13 7 10 11 13 10 7 9 11 4 1 2 5 13 11 2 1 5 2 5 8
46 49 54 58 62 62 61 62 62 62 66 41 48 42 28 21 23 20 22 24 26 22 21 22 16 14 17 14 13 2 11 7 1 8 9 6 3 3 4 7 6 9 7 5 5 4 3
49 55 56 60 65 67 71 73 77 80 81 56 49 42 24 13 20 24 26 26 23 23 12 15 23 18 10 12 9 4 5 8 10 11 10 5 3 3 5 3 5 5 7 7 9 5 7
42 50 55 59 60 57 59 63 77 94 94 75 48 48 32 11 20 24 24 25 22 21 19 21 21 13 16 13 6 6 5 6 11 12 12 10 4 3 4 7 5 6 9 6 4 4 2
39 40 39 45 45 45 50 58 60 96 101 76 51 46 34 13 17 30 26 31 15 19 15 11 11 13 15 6 5 8 7 7 7 8 8 9 8 4 4 6 4 6 5 3 1 6 4
13 7 14 12 11 19 27 43 55 100 83 58 44 43 30 13 24 33 23 21 21 17 9 17 12 8 10 7 7 6 7 4 8 10 7 7 8 11 9 8 6 3 3 4 6 5 8
20 28 36 38 41 45 55 68 82 82 56 54 44 38 34 10 16 24 23 27 19 23 9 19 9 6 8 8 7 4 4 6 3 1 9 10 7 5 6 6 10 5 5 3 9 14 12
31 37 42 45 53 59 65 66 64 61 54 50 42 29 27 22 16 20 22 18 14 22 15 26 3 21 10 7 4 3 3 3 8 5 5 4 3 2 5 4 6 5 11 11 12 14 12

GFSGBSN_850_spd_126.txt.gz
Wind_Speed
31 30 28 26 26 22 21 22 20 22 19 16 15 13 12 12 12 14 15 13 13 13 13 14 14 14 12 7 6 7 12 9 9 6 6 8 12 10 11 13 13 16 16 17 14 17 19
24 27 30 27 26 25 24 26 24 21 23 19 16 15 13 13 13 15 15 14 14 14 14 15 14 13 8 14 2 2 4 4 5 5 6 8 7 11 12 14 11 18 15 19 22 22 21
25 24 27 29 30 28 24 24 23 22 24 21 20 16 14 14 12 14 15 15 16 16 15 15 14 13 12 14 4 5 6 3 7 7 8 7 8 8 10 12 9 11 15 18 22 13 6
27 29 27 23 28 25 23 23 25 23 24 22 22 19 18 17 15 15 15 14 17 18 17 16 15 12 9 8 7 8 5 8 9 8 9 9 8 12 15 14 19 15 16 13 11 7 6
27 26 27 30 30 29 29 29 25 23 22 21 20 20 21 21 18 16 18 15 17 20 20 18 13 5 10 7 6 6 6 8 8 11 10 8 8 12 13 12 13 15 12 10 13 14 4
25 28 26 25 26 23 23 24 27 25 23 19 19 17 19 20 17 15 17 15 17 20 14 10 10 9 13 6 5 7 7 8 8 8 11 10 8 9 10 10 11 9 11 12 15 13 14
19 22 25 26 25 25 28 26 22 20 20 17 17 16 16 16 13 11 10 9 10 5 2 9 11 14 8 8 10 11 9 9 11 12 12 17 10 11 17 4 7 10 12 15 16 15 12
20 20 19 20 23 24 23 24 26 26 26 24 21 16 16 11 10 9 6 4 3 6 12 19 24 27 22 14 12 13 10 8 13 13 18 11 14 16 7 3 7 12 15 17 16 13 13
18 18 19 19 18 19 20 22 21 20 20 17 16 14 12 9 12 10 8 5 9 7 8 14 27 27 24 18 19 23 18 14 16 15 16 16 17 5 5 12 13 15 16 15 17 14 16
18 17 17 17 17 17 18 18 19 20 19 16 15 14 15 11 11 9 6 5 10 3 5 10 8 5 19 15 14 23 14 13 14 15 16 15 16 18 13 14 14 15 14 12 14 14 12
17 17 18 18 17 17 16 16 17 18 18 19 20 19 18 13 7 7 9 6 11 3 6 5 9 6 8 13 1 11 9 11 14 16 7 10 8 7 12 14 14 13 11 14 17 17 18
20 19 18 18 18 17 16 16 15 14 16 17 18 19 15 21 21 13 9 9 8 4 10 4 5 6 10 18 14 7 9 11 9 12 17 20 23 9 10 13 6 11 14 17 19 16 13
24 22 21 19 18 17 15 13 12 12 10 14 17 18 13 18 21 17 11 12 2 5 3 8 7 8 13 14 16 13 10 13 9 6 13 17 21 18 13 13 14 16 13 7 5 6 10
26 25 24 22 20 19 16 15 12 10 8 10 13 9 20 25 21 15 17 3 6 11 16 4 5 9 15 13 13 14 14 14 18 14 12 11 7 17 14 14 9 7 6 6 8 9 15
30 28 28 27 23 22 20 16 13 9 6 7 7 22 23 21 17 20 8 4 6 12 14 16 13 15 16 17 9 14 15 16 16 12 7 8 6 4 9 9 5 2 6 4 9 14 11
32 32 30 27 26 24 22 19 14 10 11 12 18 20 22 20 17 26 2 8 13 16 16 15 13 10 13 18 10 7 10 6 18 4 3 5 6 10 9 6 15 13 9 5 1 4 8
35 33 32 30 30 29 23 21 17 13 16 16 19 12 10 21 27 14 6 11 19 24 22 12 12 7 10 6 10 9 9 3 4 6 4 6 1 6 8 10 15 8 11 3 2 6 5
37 36 35 34 30 28 27 22 21 17 20 19 22 4 18 35 7 5 13 11 8 16 17 16 10 14 17 15 16 3 4 12 9 2 5 6 3 7 15 5 5 3 3 3 3 5 4
42 38 35 32 34 31 28 26 25 21 27 27 15 8 28 35 7 11 17 17 24 18 15 16 16 11 2 3 2 6 6 2 8 5 1 2 5 7 10 9 2 5 5 3 6 6 9
39 36 34 36 34 34 31 29 29 27 29 29 13 4 10 24 16 17 22 20 22 17 23 22 10 10 8 5 10 4 8 6 9 7 3 2 7 12 9 6 3 4 2 4 4 3 5
41 39 38 42 40 39 35 34 32 32 33 38 19 9 14 8 15 12 9 10 22 23 25 26 20 19 15 8 12 10 13 11 12 12 2 5 4 10 17 16 8 3 3 5 4 7 5
42 42 40 40 40 40 43 38 37 38 37 41 15 14 25 19 26 22 19 19 22 20 17 21 19 16 17 14 9 8 10 11 7 12 8 10 2 2 12 16 13 7 6 9 6 2 2
42 44 44 43 44 42 46 44 43 43 43 37 37 30 27 20 18 18 22 28 25 18 21 25 20 18 18 15 7 14 17 15 7 10 11 10 3 3 11 7 10 9 14 9 6 6 6
43 45 48 48 48 50 47 46 49 50 52 51 43 35 28 14 16 20 21 30 26 24 21 26 23 16 8 13 7 0 1 5 7 8 9 5 5 3 7 3 5 2 5 10 8 5 6
44 47 51 53 50 52 54 53 55 55 56 61 43 47 35 16 22 24 26 22 31 27 23 18 18 18 12 15 4 4 5 7 13 15 13 9 5 3 4 8 2 4 8 9 8 7 6
47 49 49 52 54 57 61 64 64 63 62 63 65 46 42 17 22 29 23 30 16 14 7 16 13 21 29 6 7 12 7 8 8 7 17 14 12 6 5 10 7 4 7 5 5 5 10
45 44 49 54 56 60 64 68 69 71 72 70 66 56 43 36 30 26 20 21 25 17 10 15 16 11 20 6 8 8 9 10 8 12 6 6 6 10 9 8 3 5 4 3 5 3 7
41 39 42 44 48 53 59 63 69 79 80 80 69 66 51 34 20 34 28 24 25 27 8 18 9 6 6 7 7 5 5 6 2 7 12 10 8 7 9 9 10 3 3 3 5 10 9
30 17 18 22 35 43 46 58 68 74 89 86 56 67 57 32 8 9 10 23 28 26 15 22 11 19 10 6 5 6 2 1 6 4 8 4 2 2 4 3 4 2 6 8 9 12 11

GFSGBSN_850_spd_129.txt.gz
Wind_Speed
25 26 26 24 22 23 22 21 19 17 17 19 19 14 13 11 12 13 13 12 13 14 14 14 15 16 15 10 10 9 7 8 5 9 9 10 13 10 6 10 16 5 7 16 17 13 14
27 27 28 29 29 23 23 22 21 20 19 19 21 16 15 11 12 14 13 13 13 14 15 14 15 14 13 7 7 12 9 4 6 6 7 6 8 11 11 10 7 14 19 17 18 22 24
24 24 22 22 25 28 26 23 24 22 21 19 22 19 17 14 13 14 14 13 14 15 14 14 15 14 14 14 5 6 10 3 5 8 7 6 8 6 12 8 12 14 8 11 21 24 10
24 24 25 24 22 24 25 27 23 22 18 20 20 19 19 17 17 16 16 17 17 17 17 16 16 13 10 9 10 10 7 7 9 13 9 10 9 10 9 10 8 3 4 3 11 10 9
27 26 25 24 26 23 22 25 25 23 22 20 15 16 15 17 18 16 17 20 19 18 19 18 15 5 10 7 10 9 10 7 9 10 11 7 8 6 7 3 6 4 5 6 9 11 2
25 26 26 25 23 24 27 27 24 25 26 22 16 14 12 13 13 14 14 14 12 17 11 8 4 9 9 8 7 9 9 8 9 8 9 10 5 3 3 3 5 3 2 5 4 7 10
16 19 22 24 25 22 23 24 23 21 18 20 17 14 8 7 8 8 7 3 5 4 4 7 18 18 24 14 12 11 15 10 10 11 4 11 3 7 12 12 15 4 5 6 6 9 9
17 17 17 16 18 21 20 19 20 22 21 18 15 15 8 11 8 4 4 3 3 6 11 23 25 34 35 25 13 11 7 8 6 7 11 6 11 16 15 14 3 5 7 8 8 14 4
12 15 15 16 15 15 16 18 18 17 16 15 14 12 11 8 8 6 4 4 6 6 7 11 25 22 15 20 28 21 17 15 7 8 10 12 10 17 11 6 6 6 6 9 12 4 5
15 15 12 12 14 15 15 15 15 16 14 11 9 14 12 10 6 4 1 0 1 1 3 6 9 3 8 12 4 19 26 19 8 11 12 12 19 19 15 16 8 6 9 9 8 7 3
14 14 12 11 10 11 11 11 12 13 13 12 13 15 12 13 11 8 6 2 5 1 3 3 3 2 5 10 4 1 4 6 3 11 8 8 14 13 5 6 7 9 3 5 6 9 8
16 15 14 13 10 9 9 8 9 11 11 11 13 12 14 13 8 6 5 8 5 4 8 4 5 5 3 6 3 3 3 2 6 5 11 17 24 13 5 7 3 6 5 10 13 8 4
21 18 16 14 13 11 11 8 8 7 7 9 11 12 15 13 12 10 11 14 2 5 3 3 4 5 6 6 8 7 7 5 3 2 5 11 11 19 18 10 2 6 2 4 3 2 5
23 20 20 17 16 12 11 10 9 7 6 7 10 11 14 14 13 11 18 3 6 7 9 7 13 6 7 5 7 9 9 5 7 10 9 7 8 9 8 13 4 5 11 4 4 1 5
25 24 22 20 18 16 14 13 10 7 6 3 14 19 17 15 14 13 10 3 6 7 4 6 10 6 5 6 7 5 8 8 9 10 10 2 6 11 13 5 6 3 3 6 3 4 3
25 26 26 23 21 19 17 14 13 9 11 9 18 17 15 15 12 21 2 7 6 7 9 9 2 5 5 5 6 6 2 1 10 9 6 3 5 8 9 4 6 5 4 3 3 2 4
25 28 27 24 24 20 18 16 15 14 15 12 15 9 12 14 27 13 5 7 6 14 14 4 5 6 9 2 4 4 3 3 10 6 7 3 4 6 9 5 7 5 5 1 2 1 3
29 28 27 27 26 23 24 21 18 19 19 17 16 3 18 25 6 4 7 4 11 20 17 9 11 9 6 7 4 2 5 2 14 13 3 4 3 4 9 15 13 13 6 5 3 3 1
32 32 30 28 28 26 24 22 24 25 25 24 16 6 25 33 7 9 5 8 16 11 9 3 7 7 3 1 1 6 5 2 3 5 2 2 3 4 7 2 2 3 5 5 4 3 4
38 39 35 31 28 27 26 28 28 30 28 27 13 3 10 19 15 5 15 15 16 10 18 20 12 10 4 2 1 3 2 2 6 3 3 3 2 5 2 4 3 4 7 6 4 2 3
42 39 37 35 28 25 27 29 31 32 33 32 15 7 13 7 14 9 6 7 19 13 18 14 7 12 6 3 3 5 4 2 3 4 2 0 4 7 7 7 9 11 7 4 4 5 5
41 40 40 38 34 28 28 33 34 35 37 37 11 7 15 5 23 18 19 15 17 10 11 14 18 13 11 11 8 5 7 5 4 9 8 5 5 1 5 8 11 13 10 8 7 5 2
39 39 42 40 38 34 30 32 39 38 40 23 36 29 11 14 13 11 17 19 14 13 19 30 15 10 11 12 13 2 6 7 7 7 9 4 4 2 4 4 7 6 9 9 5 5 6
41 40 38 38 38 36 34 34 39 44 44 36 32 26 14 7 11 17 12 18 20 24 18 16 26 10 9 10 5 1 7 14 17 16 11 5 8 2 3 6 3 2 4 6 10 8 10
40 40 40 41 40 39 39 39 39 45 48 48 33 33 21 11 18 13 19 13 25 29 24 22 23 20 14 9 3 2 2 4 8 8 9 6 4 2 2 2 3 1 2 1 5 5 8
41 42 42 43 42 42 41 43 44 43 50 50 49 37 33 14 19 29 16 29 11 8 8 20 7 12 18 4 2 6 6 7 6 5 18 10 6 3 1 3 3 1 6 13 8 2 7
41 43 44 44 45 46 45 47 47 48 53 55 52 51 34 22 33 20 18 13 25 13 3 5 9 6 18 3 4 4 5 7 4 7 5 9 4 10 6 4 1 2 4 5 2 3 5
42 43 45 46 49 50 52 52 51 52 54 54 59 49 51 28 23 32 34 23 16 31 5 12 8 4 8 5 5 4 4 5 8 8 7 10 8 4 4 3 7 4 2 3 3 15 13
40 42 46 49 55 56 56 55 54 55 57 56 50 53 44 40 10 29 29 23 33 27 22 25 7 15 11 4 4 3 4 2 2 2 9 4 4 4 2 2 4 4 6 7 13 17 14